Wetterdaten: Donnerstag, 20.01.2022
Datum Zeit Temp. Aussen Temp. o. S. Temp +5cm Feuchte Auss Luftdruck Regen Sonnenschein Regendauer Solar Windben Empfang
20.01.2022 00:00 4,5 C 3,9 C 3,3 C 98 % 1023,7 hPa 0,0 l/m 0 min 0 min 0 W/m 12,9 km/h (3 Bft) 97,14 %
20.01.2022 00:02 4,5 C 3,9 C 3,3 C 98 % 1023,7 hPa 0,0 l/m 0 min 0 min 0 W/m 16,1 km/h (3 Bft) 97,37 %
20.01.2022 00:04 4,5 C 3,9 C 3,3 C 98 % 1023,7 hPa 0,0 l/m 0 min 0 min 0 W/m 6,4 km/h (2 Bft) 62,50 %
20.01.2022 00:08 4,4 C 3,9 C 2,8 C 98 % 1023,8 hPa 0,0 l/m 0 min 0 min 0 W/m 12,9 km/h (3 Bft) 96,63 %
20.01.2022 00:10 4,4 C 3,9 C 2,8 C 98 % 1023,8 hPa 0,0 l/m 0 min 0 min 0 W/m 19,3 km/h (3 Bft) 100,00 %
20.01.2022 00:12 4,3 C 3,9 C 2,8 C 98 % 1023,8 hPa 0,0 l/m 0 min 0 min 0 W/m 9,7 km/h (2 Bft) 100,00 %
20.01.2022 00:14 4,3 C 3,9 C 2,8 C 98 % 1023,8 hPa 0,0 l/m 0 min 0 min 0 W/m 9,7 km/h (2 Bft) 100,00 %
20.01.2022 00:16 4,3 C 3,9 C 2,8 C 98 % 1023,9 hPa 0,0 l/m 0 min 0 min 0 W/m 6,4 km/h (2 Bft) 100,00 %
20.01.2022 00:18 4,3 C 3,9 C 2,8 C 98 % 1023,9 hPa 0,0 l/m 0 min 0 min 0 W/m 12,9 km/h (3 Bft) 100,00 %
20.01.2022 00:20 4,3 C 3,3 C 2,8 C 98 % 1023,8 hPa 0,0 l/m 0 min 0 min 0 W/m 6,4 km/h (2 Bft) 100,00 %
20.01.2022 00:22 4,2 C 3,3 C 2,8 C 98 % 1023,9 hPa 0,0 l/m 0 min 0 min 0 W/m 6,4 km/h (2 Bft) 100,00 %
20.01.2022 00:24 4,2 C 3,3 C 2,8 C 98 % 1023,9 hPa 0,0 l/m 0 min 0 min 0 W/m 16,1 km/h (3 Bft) 100,00 %
20.01.2022 00:26 4,2 C 3,3 C 2,8 C 98 % 1023,9 hPa 0,0 l/m 0 min 0 min 0 W/m 12,9 km/h (3 Bft) 100,00 %
20.01.2022 00:28 4,1 C 3,3 C 2,8 C 98 % 1024,0 hPa 0,0 l/m 0 min 0 min 0 W/m 12,9 km/h (3 Bft) 100,00 %
20.01.2022 00:30 4,1 C 3,3 C 2,8 C 98 % 1024,0 hPa 0,0 l/m 0 min 0 min 0 W/m 6,4 km/h (2 Bft) 100,00 %
20.01.2022 00:32 4,1 C 3,3 C 2,8 C 98 % 1024,1 hPa 0,0 l/m 0 min 0 min 0 W/m 9,7 km/h (2 Bft) 100,00 %
20.01.2022 00:34 4,0 C 3,3 C 2,8 C 98 % 1024,1 hPa 0,0 l/m 0 min 0 min 0 W/m 6,4 km/h (2 Bft) 100,00 %
20.01.2022 00:36 4,0 C 3,3 C 2,2 C 98 % 1024,1 hPa 0,0 l/m 0 min 0 min 0 W/m 9,7 km/h (2 Bft) 100,00 %
20.01.2022 00:38 3,9 C 3,3 C 2,2 C 98 % 1024,1 hPa 0,0 l/m 0 min 0 min 0 W/m 9,7 km/h (2 Bft) 97,92 %
20.01.2022 00:40 3,9 C 2,8 C 2,2 C 98 % 1024,2 hPa 0,0 l/m 0 min 0 min 0 W/m 6,4 km/h (2 Bft) 100,00 %
20.01.2022 00:42 3,8 C 2,8 C 2,2 C 98 % 1024,2 hPa 0,0 l/m 0 min 0 min 0 W/m 9,7 km/h (2 Bft) 100,00 %
20.01.2022 00:44 3,8 C 2,8 C 2,2 C 98 % 1024,2 hPa 0,0 l/m 0 min 0 min 0 W/m 9,7 km/h (2 Bft) 100,00 %
20.01.2022 00:46 3,8 C 2,8 C 2,2 C 98 % 1024,2 hPa 0,0 l/m 0 min 0 min 0 W/m 6,4 km/h (2 Bft) 100,00 %
20.01.2022 00:48 3,8 C 2,8 C 2,2 C 98 % 1024,2 hPa 0,0 l/m 0 min 0 min 0 W/m 6,4 km/h (2 Bft) 100,00 %
20.01.2022 00:50 3,7 C 2,8 C 2,2 C 98 % 1024,2 hPa 0,0 l/m 0 min 0 min 0 W/m 9,7 km/h (2 Bft) 100,00 %
20.01.2022 00:52 3,7 C 2,8 C 2,2 C 98 % 1024,2 hPa 0,0 l/m 0 min 0 min 0 W/m 12,9 km/h (3 Bft) 100,00 %
20.01.2022 00:54 3,7 C 2,8 C 2,2 C 97 % 1024,2 hPa 0,0 l/m 0 min 0 min 0 W/m 9,7 km/h (2 Bft) 100,00 %
20.01.2022 00:56 3,6 C 2,8 C 2,2 C 97 % 1024,3 hPa 0,0 l/m 0 min 0 min 0 W/m 9,7 km/h (2 Bft) 100,00 %
20.01.2022 00:58 3,6 C 2,8 C 2,2 C 97 % 1024,4 hPa 0,0 l/m 0 min 0 min 0 W/m 9,7 km/h (2 Bft) 97,87 %
20.01.2022 01:00 3,6 C 2,8 C 2,2 C 97 % 1024,4 hPa 0,0 l/m 0 min 0 min 0 W/m 9,7 km/h (2 Bft) 97,87 %
20.01.2022 01:02 3,6 C 2,8 C 2,2 C 98 % 1024,4 hPa 0,0 l/m 0 min 0 min 0 W/m 9,7 km/h (2 Bft) 97,96 %
20.01.2022 01:04 3,5 C 2,8 C 2,2 C 98 % 1024,4 hPa 0,0 l/m 0 min 0 min 0 W/m 9,7 km/h (2 Bft) 97,92 %
20.01.2022 01:06 3,5 C 2,8 C 2,2 C 98 % 1024,4 hPa 0,0 l/m 0 min 0 min 0 W/m 6,4 km/h (2 Bft) 97,83 %
20.01.2022 01:08 3,4 C 2,8 C 2,2 C 98 % 1024,3 hPa 0,0 l/m 0 min 0 min 0 W/m 9,7 km/h (2 Bft) 95,83 %
20.01.2022 01:10 3,4 C 2,8 C 2,2 C 98 % 1024,4 hPa 0,0 l/m 0 min 0 min 0 W/m 9,7 km/h (2 Bft) 93,75 %
20.01.2022 01:12 3,4 C 2,8 C 2,2 C 98 % 1024,3 hPa 0,0 l/m 0 min 0 min 0 W/m 12,9 km/h (3 Bft) 97,92 %
20.01.2022 01:14 3,4 C 2,8 C 2,2 C 98 % 1024,3 hPa 0,0 l/m 0 min 0 min 0 W/m 9,7 km/h (2 Bft) 97,14 %
20.01.2022 01:16 3,3 C 2,8 C 2,2 C 97 % 1024,2 hPa 0,0 l/m 0 min 0 min 0 W/m 6,4 km/h (2 Bft) 95,74 %
20.01.2022 01:18 3,3 C 2,8 C 2,2 C 97 % 1024,3 hPa 0,0 l/m 0 min 0 min 0 W/m 6,4 km/h (2 Bft) 93,62 %
20.01.2022 01:20 3,3 C 2,8 C 2,2 C 97 % 1024,2 hPa 0,0 l/m 0 min 0 min 0 W/m 6,4 km/h (2 Bft) 95,65 %
20.01.2022 01:22 3,3 C 2,8 C 1,7 C 97 % 1024,2 hPa 0,0 l/m 0 min 0 min 0 W/m 3,2 km/h (1 Bft) 95,74 %
20.01.2022 01:24 3,3 C 2,8 C 1,7 C 97 % 1024,2 hPa 0,0 l/m 0 min 0 min 0 W/m 3,2 km/h (1 Bft) 95,74 %
20.01.2022 01:26 3,2 C 2,8 C 1,7 C 97 % 1024,3 hPa 0,0 l/m 0 min 0 min 0 W/m 6,4 km/h (2 Bft) 93,62 %
20.01.2022 01:28 3,2 C 2,2 C 1,7 C 97 % 1024,2 hPa 0,0 l/m 0 min 0 min 0 W/m 3,2 km/h (1 Bft) 92,59 %
20.01.2022 01:30 3,2 C 2,2 C 1,7 C 97 % 1024,2 hPa 0,0 l/m 0 min 0 min 0 W/m 3,2 km/h (1 Bft) 93,48 %
20.01.2022 01:32 3,2 C 2,2 C 1,7 C 97 % 1024,2 hPa 0,0 l/m 0 min 0 min 0 W/m 6,4 km/h (2 Bft) 91,84 %
20.01.2022 01:34 3,1 C 2,2 C 1,7 C 97 % 1024,3 hPa 0,0 l/m 0 min 0 min 0 W/m 6,4 km/h (2 Bft) 93,75 %
20.01.2022 01:36 3,1 C 2,2 C 1,7 C 97 % 1024,4 hPa 0,0 l/m 0 min 0 min 0 W/m 6,4 km/h (2 Bft) 91,67 %
20.01.2022 01:38 3,1 C 2,2 C 1,7 C 97 % 1024,4 hPa 0,0 l/m 0 min 0 min 0 W/m 6,4 km/h (2 Bft) 94,44 %
20.01.2022 01:40 3,1 C 2,2 C 1,7 C 97 % 1024,5 hPa 0,0 l/m 0 min 0 min 0 W/m 6,4 km/h (2 Bft) 91,49 %
20.01.2022 01:42 3,1 C 2,2 C 1,7 C 97 % 1024,4 hPa 0,0 l/m 0 min 0 min 0 W/m 6,4 km/h (2 Bft) 91,49 %
20.01.2022 01:44 3,0 C 2,2 C 1,7 C 97 % 1024,5 hPa 0,0 l/m 0 min 0 min 0 W/m 6,4 km/h (2 Bft) 93,48 %
20.01.2022 01:46 3,0 C 2,2 C 1,7 C 97 % 1024,5 hPa 0,0 l/m 0 min 0 min 0 W/m 6,4 km/h (2 Bft) 94,44 %
20.01.2022 01:48 2,9 C 2,2 C 1,7 C 97 % 1024,4 hPa 0,0 l/m 0 min 0 min 0 W/m 6,4 km/h (2 Bft) 95,74 %
20.01.2022 01:50 2,9 C 2,2 C 1,7 C 97 % 1024,4 hPa 0,0 l/m 0 min 0 min 0 W/m 6,4 km/h (2 Bft) 93,75 %
20.01.2022 01:52 2,9 C 2,2 C 1,7 C 97 % 1024,4 hPa 0,0 l/m 0 min 0 min 0 W/m 9,7 km/h (2 Bft) 95,74 %
20.01.2022 01:54 2,9 C 2,2 C 1,7 C 97 % 1024,4 hPa 0,0 l/m 0 min 0 min 0 W/m 6,4 km/h (2 Bft) 91,49 %
20.01.2022 01:56 2,9 C 2,2 C 1,7 C 97 % 1024,5 hPa 0,0 l/m 0 min 0 min 0 W/m 6,4 km/h (2 Bft) 61,70 %
20.01.2022 01:58 2,9 C 2,2 C 1,7 C 97 % 1024,4 hPa 0,0 l/m 0 min 0 min 0 W/m 6,4 km/h (2 Bft) 95,83 %
20.01.2022 02:00 2,9 C 2,2 C 1,7 C 97 % 1024,5 hPa 0,0 l/m 0 min 0 min 0 W/m 6,4 km/h (2 Bft) 93,75 %
20.01.2022 02:02 2,9 C 2,2 C 1,7 C 97 % 1024,5 hPa 0,0 l/m 0 min 0 min 0 W/m 6,4 km/h (2 Bft) 100,00 %
20.01.2022 02:04 2,9 C 2,2 C 1,7 C 97 % 1024,5 hPa 0,0 l/m 0 min 0 min 0 W/m 6,4 km/h (2 Bft) 95,74 %
20.01.2022 02:06 2,9 C 2,2 C 1,7 C 97 % 1024,6 hPa 0,0 l/m 0 min 0 min 0 W/m 6,4 km/h (2 Bft) 97,87 %
20.01.2022 02:08 2,9 C 2,2 C 1,7 C 97 % 1024,6 hPa 0,0 l/m 0 min 0 min 0 W/m 6,4 km/h (2 Bft) 100,00 %
20.01.2022 02:10 2,9 C 2,2 C 1,7 C 97 % 1024,6 hPa 0,0 l/m 0 min 0 min 0 W/m 6,4 km/h (2 Bft) 95,74 %
20.01.2022 02:12 2,9 C 2,2 C 1,7 C 97 % 1024,6 hPa 0,0 l/m 0 min 0 min 0 W/m 12,9 km/h (3 Bft) 100,00 %
20.01.2022 02:14 2,9 C 2,8 C 1,7 C 97 % 1024,6 hPa 0,0 l/m 0 min 0 min 0 W/m 6,4 km/h (2 Bft) 100,00 %
20.01.2022 02:16 3,0 C 2,8 C 1,7 C 97 % 1024,6 hPa 0,0 l/m 0 min 0 min 0 W/m 6,4 km/h (2 Bft) 100,00 %
20.01.2022 02:18 3,0 C 2,8 C 1,7 C 97 % 1024,5 hPa 0,0 l/m 0 min 0 min 0 W/m 12,9 km/h (3 Bft) 100,00 %
20.01.2022 02:20 3,1 C 2,8 C 1,7 C 97 % 1024,5 hPa 0,0 l/m 0 min 0 min 0 W/m 6,4 km/h (2 Bft) 100,00 %
20.01.2022 02:22 3,1 C 2,8 C 1,7 C 97 % 1024,6 hPa 0,0 l/m 0 min 0 min 0 W/m 6,4 km/h (2 Bft) 100,00 %
20.01.2022 02:24 3,1 C 2,8 C 1,7 C 97 % 1024,5 hPa 0,0 l/m 0 min 0 min 0 W/m 6,4 km/h (2 Bft) 100,00 %
20.01.2022 02:26 3,2 C 2,8 C 1,7 C 97 % 1024,5 hPa 0,0 l/m 0 min 0 min 0 W/m 12,9 km/h (3 Bft) 100,00 %
20.01.2022 02:28 3,2 C 2,8 C 2,2 C 97 % 1024,6 hPa 0,0 l/m 0 min 0 min 0 W/m 12,9 km/h (3 Bft) 100,00 %
20.01.2022 02:30 3,2 C 2,8 C 2,2 C 97 % 1024,7 hPa 0,0 l/m 0 min 0 min 0 W/m 9,7 km/h (2 Bft) 100,00 %
20.01.2022 02:32 3,2 C 2,8 C 2,2 C 97 % 1024,6 hPa 0,0 l/m 0 min 0 min 0 W/m 16,1 km/h (3 Bft) 100,00 %
20.01.2022 02:34 3,2 C 2,8 C 2,2 C 97 % 1024,6 hPa 0,0 l/m 0 min 0 min 0 W/m 6,4 km/h (2 Bft) 100,00 %
20.01.2022 02:36 3,3 C 2,8 C 2,2 C 97 % 1024,6 hPa 0,0 l/m 0 min 2 min 0 W/m 12,9 km/h (3 Bft) 97,92 %
20.01.2022 02:38 3,3 C 2,8 C 2,2 C 97 % 1024,5 hPa 0,0 l/m 0 min 2 min 0 W/m 9,7 km/h (2 Bft) 100,00 %
20.01.2022 02:40 3,3 C 2,8 C 2,2 C 97 % 1024,6 hPa 0,0 l/m 0 min 0 min 0 W/m 6,4 km/h (2 Bft) 100,00 %
20.01.2022 02:42 3,3 C 2,8 C 2,2 C 97 % 1024,6 hPa 0,0 l/m 0 min 0 min 0 W/m 6,4 km/h (2 Bft) 100,00 %
20.01.2022 02:44 3,3 C 2,8 C 2,2 C 97 % 1024,6 hPa 0,0 l/m 0 min 0 min 0 W/m 12,9 km/h (3 Bft) 100,00 %
20.01.2022 02:46 3,3 C 2,8 C 2,2 C 97 % 1024,6 hPa 0,0 l/m 0 min 0 min 0 W/m 6,4 km/h (2 Bft) 100,00 %
20.01.2022 02:48 3,3 C 2,8 C 2,2 C 97 % 1024,7 hPa 0,0 l/m 0 min 0 min 0 W/m 9,7 km/h (2 Bft) 100,00 %
20.01.2022 02:50 3,3 C 2,8 C 2,2 C 97 % 1024,7 hPa 0,0 l/m 0 min 0 min 0 W/m 9,7 km/h (2 Bft) 100,00 %
20.01.2022 02:52 3,3 C 2,8 C 2,2 C 97 % 1024,8 hPa 0,0 l/m 0 min 0 min 0 W/m 9,7 km/h (2 Bft) 100,00 %
20.01.2022 02:54 3,3 C 2,8 C 2,2 C 97 % 1024,7 hPa 0,0 l/m 0 min 0 min 0 W/m 9,7 km/h (2 Bft) 96,23 %
20.01.2022 02:56 3,3 C 2,8 C 2,2 C 97 % 1024,7 hPa 0,0 l/m 0 min 0 min 0 W/m 12,9 km/h (3 Bft) 100,00 %
20.01.2022 02:58 3,3 C 2,8 C 2,2 C 97 % 1024,7 hPa 0,0 l/m 0 min 0 min 0 W/m 6,4 km/h (2 Bft) 100,00 %
20.01.2022 03:00 3,3 C 2,8 C 2,2 C 97 % 1024,7 hPa 0,0 l/m 0 min 0 min 0 W/m 9,7 km/h (2 Bft) 97,92 %
20.01.2022 03:02 3,3 C 2,8 C 2,2 C 97 % 1024,7 hPa 0,0 l/m 0 min 0 min 0 W/m 12,9 km/h (3 Bft) 97,87 %
20.01.2022 03:04 3,3 C 2,8 C 2,2 C 97 % 1024,7 hPa 0,0 l/m 0 min 0 min 0 W/m 6,4 km/h (2 Bft) 95,74 %
20.01.2022 03:06 3,3 C 2,8 C 2,2 C 97 % 1024,7 hPa 0,0 l/m 0 min 0 min 0 W/m 12,9 km/h (3 Bft) 97,87 %
20.01.2022 03:08 3,3 C 2,8 C 1,7 C 97 % 1024,7 hPa 0,0 l/m 0 min 0 min 0 W/m 6,4 km/h (2 Bft) 97,87 %
20.01.2022 03:10 3,2 C 2,8 C 1,7 C 97 % 1024,7 hPa 0,0 l/m 0 min 0 min 0 W/m 6,4 km/h (2 Bft) 97,87 %
20.01.2022 03:12 3,2 C 2,8 C 1,7 C 97 % 1024,7 hPa 0,0 l/m 0 min 0 min 0 W/m 6,4 km/h (2 Bft) 97,30 %
20.01.2022 03:14 3,2 C 2,8 C 2,2 C 97 % 1024,7 hPa 0,0 l/m 0 min 0 min 0 W/m 12,9 km/h (3 Bft) 97,92 %
20.01.2022 03:16 3,2 C 2,8 C 2,2 C 97 % 1024,7 hPa 0,0 l/m 0 min 0 min 0 W/m 12,9 km/h (3 Bft) 97,83 %
20.01.2022 03:18 3,2 C 2,8 C 2,2 C 97 % 1024,6 hPa 0,0 l/m 0 min 0 min 0 W/m 9,7 km/h (2 Bft) 95,74 %
20.01.2022 03:20 3,2 C 2,8 C 2,2 C 97 % 1024,6 hPa 0,0 l/m 0 min 0 min 0 W/m 12,9 km/h (3 Bft) 95,74 %
20.01.2022 03:22 3,3 C 2,8 C 2,2 C 97 % 1024,5 hPa 0,0 l/m 0 min 0 min 0 W/m 16,1 km/h (3 Bft) 97,87 %
20.01.2022 03:24 3,3 C 2,8 C 2,2 C 97 % 1024,5 hPa 0,0 l/m 0 min 0 min 0 W/m 9,7 km/h (2 Bft) 97,87 %
20.01.2022 03:26 3,3 C 2,8 C 2,2 C 97 % 1024,5 hPa 0,0 l/m 0 min 0 min 0 W/m 9,7 km/h (2 Bft) 98,11 %
20.01.2022 03:28 3,3 C 2,8 C 2,2 C 97 % 1024,5 hPa 0,0 l/m 0 min 0 min 0 W/m 16,1 km/h (3 Bft) 97,92 %
20.01.2022 03:30 3,3 C 2,8 C 2,2 C 97 % 1024,5 hPa 0,0 l/m 0 min 0 min 0 W/m 6,4 km/h (2 Bft) 97,92 %
20.01.2022 03:32 3,3 C 2,8 C 2,2 C 97 % 1024,4 hPa 0,0 l/m 0 min 0 min 0 W/m 9,7 km/h (2 Bft) 97,92 %
20.01.2022 03:34 3,3 C 2,8 C 2,2 C 97 % 1024,4 hPa 0,0 l/m 0 min 0 min 0 W/m 6,4 km/h (2 Bft) 100,00 %
20.01.2022 03:36 3,3 C 2,8 C 2,2 C 97 % 1024,4 hPa 0,0 l/m 0 min 0 min 0 W/m 6,4 km/h (2 Bft) 97,92 %
20.01.2022 03:38 3,3 C 2,8 C 1,7 C 97 % 1024,5 hPa 0,0 l/m 0 min 0 min 0 W/m 6,4 km/h (2 Bft) 97,87 %
20.01.2022 03:40 3,3 C 2,8 C 1,7 C 97 % 1024,5 hPa 0,0 l/m 0 min 0 min 0 W/m 9,7 km/h (2 Bft) 100,00 %
20.01.2022 03:42 3,2 C 2,8 C 1,7 C 97 % 1024,6 hPa 0,0 l/m 0 min 0 min 0 W/m 9,7 km/h (2 Bft) 91,49 %
20.01.2022 03:44 3,2 C 2,8 C 1,7 C 97 % 1024,5 hPa 0,0 l/m 0 min 0 min 0 W/m 12,9 km/h (3 Bft) 62,22 %
20.01.2022 03:46 3,2 C 2,8 C 1,7 C 97 % 1024,5 hPa 0,0 l/m 0 min 0 min 0 W/m 9,7 km/h (2 Bft) 100,00 %
20.01.2022 03:48 3,2 C 2,8 C 1,7 C 97 % 1024,5 hPa 0,0 l/m 0 min 0 min 0 W/m 12,9 km/h (3 Bft) 97,92 %
20.01.2022 03:50 3,2 C 2,8 C 2,2 C 97 % 1024,6 hPa 0,0 l/m 0 min 0 min 0 W/m 16,1 km/h (3 Bft) 97,83 %
20.01.2022 03:52 3,2 C 2,8 C 2,2 C 97 % 1024,6 hPa 0,0 l/m 0 min 0 min 0 W/m 12,9 km/h (3 Bft) 97,87 %
20.01.2022 03:54 3,3 C 2,8 C 2,2 C 97 % 1024,7 hPa 0,0 l/m 0 min 0 min 0 W/m 9,7 km/h (2 Bft) 97,92 %
20.01.2022 03:56 3,3 C 2,8 C 2,2 C 97 % 1024,6 hPa 0,0 l/m 0 min 0 min 0 W/m 12,9 km/h (3 Bft) 97,22 %
20.01.2022 03:58 3,3 C 2,8 C 2,2 C 97 % 1024,5 hPa 0,0 l/m 0 min 0 min 0 W/m 9,7 km/h (2 Bft) 95,83 %
20.01.2022 04:00 3,3 C 2,8 C 2,2 C 97 % 1024,5 hPa 0,0 l/m 0 min 0 min 0 W/m 12,9 km/h (3 Bft) 97,87 %
20.01.2022 04:02 3,3 C 2,8 C 2,2 C 97 % 1024,4 hPa 0,0 l/m 0 min 0 min 0 W/m 12,9 km/h (3 Bft) 100,00 %
20.01.2022 04:04 3,3 C 2,8 C 2,2 C 97 % 1024,4 hPa 0,0 l/m 0 min 0 min 0 W/m 12,9 km/h (3 Bft) 97,92 %
20.01.2022 04:06 3,3 C 2,8 C 2,2 C 97 % 1024,4 hPa 0,0 l/m 0 min 0 min 0 W/m 9,7 km/h (2 Bft) 97,87 %
20.01.2022 04:08 3,3 C 2,8 C 2,2 C 97 % 1024,4 hPa 0,0 l/m 0 min 0 min 0 W/m 12,9 km/h (3 Bft) 95,83 %
20.01.2022 04:10 3,3 C 2,8 C 2,2 C 97 % 1024,4 hPa 0,0 l/m 0 min 0 min 0 W/m 12,9 km/h (3 Bft) 95,74 %
20.01.2022 04:12 3,3 C 2,8 C 2,2 C 97 % 1024,4 hPa 0,0 l/m 0 min 0 min 0 W/m 9,7 km/h (2 Bft) 97,30 %
20.01.2022 04:14 3,3 C 2,8 C 2,2 C 97 % 1024,4 hPa 0,0 l/m 0 min 0 min 0 W/m 12,9 km/h (3 Bft) 97,87 %
20.01.2022 04:16 3,3 C 2,8 C 2,2 C 96 % 1024,5 hPa 0,0 l/m 0 min 0 min 0 W/m 12,9 km/h (3 Bft) 93,48 %
20.01.2022 04:18 3,3 C 2,8 C 2,2 C 96 % 1024,5 hPa 0,0 l/m 0 min 0 min 0 W/m 16,1 km/h (3 Bft) 93,62 %
20.01.2022 04:20 3,3 C 2,8 C 1,7 C 96 % 1024,6 hPa 0,0 l/m 0 min 0 min 0 W/m 9,7 km/h (2 Bft) 89,36 %
20.01.2022 04:22 3,3 C 2,8 C 1,7 C 96 % 1024,5 hPa 0,0 l/m 0 min 0 min 0 W/m 12,9 km/h (3 Bft) 95,74 %
20.01.2022 04:24 3,3 C 2,8 C 1,7 C 96 % 1024,4 hPa 0,0 l/m 0 min 0 min 0 W/m 12,9 km/h (3 Bft) 95,74 %
20.01.2022 04:26 3,3 C 2,8 C 1,7 C 96 % 1024,4 hPa 0,0 l/m 0 min 0 min 0 W/m 16,1 km/h (3 Bft) 100,00 %
20.01.2022 04:28 3,2 C 2,8 C 1,7 C 96 % 1024,4 hPa 0,0 l/m 0 min 0 min 0 W/m 12,9 km/h (3 Bft) 97,87 %
20.01.2022 04:30 3,3 C 2,8 C 1,7 C 96 % 1024,4 hPa 0,0 l/m 0 min 0 min 0 W/m 12,9 km/h (3 Bft) 97,87 %
20.01.2022 04:32 3,3 C 2,8 C 1,7 C 96 % 1024,5 hPa 0,0 l/m 0 min 0 min 0 W/m 12,9 km/h (3 Bft) 98,11 %
20.01.2022 04:34 3,3 C 2,8 C 1,7 C 96 % 1024,5 hPa 0,0 l/m 0 min 0 min 0 W/m 16,1 km/h (3 Bft) 97,92 %
20.01.2022 04:36 3,3 C 2,8 C 1,7 C 96 % 1024,5 hPa 0,0 l/m 0 min 0 min 0 W/m 16,1 km/h (3 Bft) 68,75 %
20.01.2022 04:38 3,3 C 2,8 C 1,7 C 96 % 1024,5 hPa 0,0 l/m 0 min 0 min 0 W/m 9,7 km/h (2 Bft) 83,72 %
20.01.2022 04:40 3,3 C 2,8 C 1,7 C 96 % 1024,4 hPa 0,0 l/m 0 min 0 min 0 W/m 16,1 km/h (3 Bft) 95,74 %
20.01.2022 04:42 3,3 C 2,8 C 2,2 C 96 % 1024,4 hPa 0,0 l/m 0 min 0 min 0 W/m 16,1 km/h (3 Bft) 95,74 %
20.01.2022 04:44 3,3 C 2,8 C 2,2 C 96 % 1024,4 hPa 0,0 l/m 0 min 0 min 0 W/m 12,9 km/h (3 Bft) 95,74 %
20.01.2022 04:46 3,3 C 2,8 C 2,2 C 96 % 1024,4 hPa 0,0 l/m 0 min 0 min 0 W/m 9,7 km/h (2 Bft) 88,89 %
20.01.2022 04:48 3,3 C 2,8 C 2,2 C 96 % 1024,4 hPa 0,0 l/m 0 min 0 min 0 W/m 12,9 km/h (3 Bft) 97,87 %
20.01.2022 04:50 3,4 C 2,8 C 2,2 C 96 % 1024,4 hPa 0,0 l/m 0 min 0 min 0 W/m 16,1 km/h (3 Bft) 95,74 %
20.01.2022 04:52 3,4 C 2,8 C 2,2 C 96 % 1024,3 hPa 0,0 l/m 0 min 0 min 0 W/m 6,4 km/h (2 Bft) 95,74 %
20.01.2022 04:54 3,4 C 2,8 C 2,2 C 96 % 1024,3 hPa 0,0 l/m 0 min 0 min 0 W/m 12,9 km/h (3 Bft) 95,74 %
20.01.2022 04:56 3,4 C 2,8 C 2,2 C 96 % 1024,4 hPa 0,0 l/m 0 min 0 min 0 W/m 12,9 km/h (3 Bft) 93,62 %
20.01.2022 04:58 3,4 C 2,8 C 2,2 C 96 % 1024,4 hPa 0,0 l/m 0 min 0 min 0 W/m 12,9 km/h (3 Bft) 95,74 %
20.01.2022 05:00 3,4 C 2,8 C 2,2 C 96 % 1024,5 hPa 0,0 l/m 0 min 0 min 0 W/m 12,9 km/h (3 Bft) 95,74 %
20.01.2022 05:02 3,4 C 2,8 C 2,2 C 96 % 1024,6 hPa 0,0 l/m 0 min 0 min 0 W/m 12,9 km/h (3 Bft) 95,65 %
20.01.2022 05:04 3,4 C 2,8 C 2,2 C 96 % 1024,6 hPa 0,0 l/m 0 min 2 min 0 W/m 12,9 km/h (3 Bft) 95,74 %
20.01.2022 05:06 3,4 C 2,8 C 2,2 C 96 % 1024,4 hPa 0,0 l/m 0 min 2 min 0 W/m 12,9 km/h (3 Bft) 95,74 %
20.01.2022 05:08 3,4 C 2,8 C 2,2 C 96 % 1024,4 hPa 0,0 l/m 0 min 2 min 0 W/m 9,7 km/h (2 Bft) 93,62 %
20.01.2022 05:10 3,4 C 2,8 C 2,2 C 96 % 1024,4 hPa 0,2 l/m 0 min 0 min 0 W/m 6,4 km/h (2 Bft) 95,74 %
20.01.2022 05:12 3,4 C 2,8 C 2,2 C 96 % 1024,3 hPa 0,0 l/m 0 min 0 min 0 W/m 9,7 km/h (2 Bft) 96,23 %
20.01.2022 05:14 3,4 C 2,8 C 2,2 C 96 % 1024,5 hPa 0,0 l/m 0 min 0 min 0 W/m 6,4 km/h (2 Bft) 95,74 %
20.01.2022 05:16 3,4 C 2,8 C 2,2 C 96 % 1024,5 hPa 0,0 l/m 0 min 0 min 0 W/m 6,4 km/h (2 Bft) 97,92 %
20.01.2022 05:18 3,4 C 2,8 C 2,2 C 96 % 1024,5 hPa 0,0 l/m 0 min 0 min 0 W/m 9,7 km/h (2 Bft) 95,74 %
20.01.2022 05:20 3,3 C 2,8 C 1,7 C 96 % 1024,4 hPa 0,0 l/m 0 min 0 min 0 W/m 12,9 km/h (3 Bft) 97,87 %
20.01.2022 05:22 3,3 C 2,8 C 1,7 C 96 % 1024,4 hPa 0,0 l/m 0 min 0 min 0 W/m 12,9 km/h (3 Bft) 100,00 %
20.01.2022 05:24 3,3 C 2,8 C 1,7 C 96 % 1024,4 hPa 0,0 l/m 0 min 0 min 0 W/m 12,9 km/h (3 Bft) 100,00 %
20.01.2022 05:26 3,2 C 2,8 C 1,7 C 96 % 1024,4 hPa 0,0 l/m 0 min 0 min 0 W/m 12,9 km/h (3 Bft) 97,87 %
20.01.2022 05:28 3,2 C 2,8 C 1,7 C 96 % 1024,3 hPa 0,0 l/m 0 min 0 min 0 W/m 12,9 km/h (3 Bft) 97,87 %
20.01.2022 05:30 3,2 C 2,8 C 1,7 C 96 % 1024,3 hPa 0,0 l/m 0 min 0 min 0 W/m 16,1 km/h (3 Bft) 100,00 %
20.01.2022 05:32 3,2 C 2,8 C 1,7 C 96 % 1024,4 hPa 0,0 l/m 0 min 0 min 0 W/m 9,7 km/h (2 Bft) 58,33 %
20.01.2022 05:34 3,1 C 2,2 C 1,7 C 96 % 1024,3 hPa 0,0 l/m 0 min 0 min 0 W/m 6,4 km/h (2 Bft) 100,00 %
20.01.2022 05:36 3,1 C 2,2 C 1,7 C 96 % 1024,3 hPa 0,0 l/m 0 min 0 min 0 W/m 6,4 km/h (2 Bft) 100,00 %
20.01.2022 05:38 3,1 C 2,2 C 1,7 C 96 % 1024,3 hPa 0,0 l/m 0 min 0 min 0 W/m 9,7 km/h (2 Bft) 100,00 %
20.01.2022 05:40 3,1 C 2,2 C 1,7 C 96 % 1024,2 hPa 0,0 l/m 0 min 0 min 0 W/m 6,4 km/h (2 Bft) 100,00 %
20.01.2022 05:42 3,1 C 2,2 C 1,7 C 96 % 1024,3 hPa 0,0 l/m 0 min 0 min 0 W/m 9,7 km/h (2 Bft) 97,87 %
20.01.2022 05:44 3,1 C 2,2 C 1,7 C 96 % 1024,2 hPa 0,0 l/m 0 min 0 min 0 W/m 6,4 km/h (2 Bft) 100,00 %
20.01.2022 05:46 3,1 C 2,2 C 1,7 C 96 % 1024,3 hPa 0,0 l/m 0 min 0 min 0 W/m 19,3 km/h (3 Bft) 97,92 %
20.01.2022 05:48 3,1 C 2,2 C 1,7 C 96 % 1024,3 hPa 0,0 l/m 0 min 0 min 0 W/m 16,1 km/h (3 Bft) 100,00 %
20.01.2022 05:50 3,1 C 2,8 C 1,7 C 96 % 1024,3 hPa 0,0 l/m 0 min 0 min 0 W/m 16,1 km/h (3 Bft) 100,00 %
20.01.2022 05:52 3,1 C 2,8 C 1,7 C 96 % 1024,3 hPa 0,0 l/m 0 min 0 min 0 W/m 16,1 km/h (3 Bft) 100,00 %
20.01.2022 05:54 3,1 C 2,8 C 1,7 C 96 % 1024,3 hPa 0,0 l/m 0 min 0 min 0 W/m 12,9 km/h (3 Bft) 95,74 %
20.01.2022 05:56 3,1 C 2,8 C 1,7 C 96 % 1024,4 hPa 0,0 l/m 0 min 0 min 0 W/m 19,3 km/h (3 Bft) 100,00 %
20.01.2022 05:58 3,1 C 2,8 C 2,2 C 96 % 1024,5 hPa 0,0 l/m 0 min 0 min 0 W/m 16,1 km/h (3 Bft) 100,00 %
20.01.2022 06:00 3,2 C 2,8 C 2,2 C 96 % 1024,4 hPa 0,0 l/m 0 min 0 min 0 W/m 12,9 km/h (3 Bft) 100,00 %
20.01.2022 06:02 3,2 C 2,8 C 2,2 C 96 % 1024,4 hPa 0,0 l/m 0 min 0 min 0 W/m 9,7 km/h (2 Bft) 96,23 %
20.01.2022 06:04 3,2 C 2,8 C 2,2 C 96 % 1024,4 hPa 0,0 l/m 0 min 0 min 0 W/m 16,1 km/h (3 Bft) 100,00 %
20.01.2022 06:08 3,2 C 2,8 C 1,7 C 96 % 1024,6 hPa 0,0 l/m 0 min 4 min 0 W/m 12,9 km/h (3 Bft) 97,00 %
20.01.2022 06:10 3,2 C 2,8 C 1,7 C 96 % 1024,5 hPa 0,0 l/m 0 min 0 min 0 W/m 19,3 km/h (3 Bft) 95,74 %
20.01.2022 06:12 3,2 C 2,8 C 1,7 C 96 % 1024,4 hPa 0,0 l/m 0 min 0 min 0 W/m 16,1 km/h (3 Bft) 97,30 %
20.01.2022 06:14 3,2 C 2,8 C 1,7 C 96 % 1024,5 hPa 0,0 l/m 0 min 0 min 0 W/m 12,9 km/h (3 Bft) 97,92 %
20.01.2022 06:16 3,2 C 2,8 C 1,7 C 96 % 1024,6 hPa 0,0 l/m 0 min 0 min 0 W/m 12,9 km/h (3 Bft) 97,87 %
20.01.2022 06:18 3,2 C 2,8 C 1,7 C 96 % 1024,7 hPa 0,0 l/m 0 min 0 min 0 W/m 16,1 km/h (3 Bft) 97,92 %
20.01.2022 06:20 3,1 C 2,8 C 1,7 C 96 % 1024,6 hPa 0,0 l/m 0 min 0 min 0 W/m 12,9 km/h (3 Bft) 95,83 %
20.01.2022 06:22 3,1 C 2,8 C 1,7 C 96 % 1024,6 hPa 0,0 l/m 0 min 0 min 0 W/m 16,1 km/h (3 Bft) 97,87 %
20.01.2022 06:24 3,1 C 2,8 C 1,7 C 96 % 1024,7 hPa 0,0 l/m 0 min 0 min 0 W/m 12,9 km/h (3 Bft) 95,74 %
20.01.2022 06:26 3,2 C 2,8 C 2,2 C 96 % 1024,8 hPa 0,0 l/m 0 min 0 min 0 W/m 12,9 km/h (3 Bft) 95,92 %
20.01.2022 06:28 3,2 C 2,8 C 2,2 C 96 % 1024,7 hPa 0,0 l/m 0 min 0 min 0 W/m 16,1 km/h (3 Bft) 95,74 %
20.01.2022 06:30 3,2 C 2,8 C 2,2 C 96 % 1024,7 hPa 0,0 l/m 0 min 0 min 0 W/m 19,3 km/h (3 Bft) 95,74 %
20.01.2022 06:32 3,2 C 2,8 C 2,2 C 96 % 1024,8 hPa 0,0 l/m 0 min 0 min 0 W/m 22,5 km/h (4 Bft) 97,87 %
20.01.2022 06:34 3,2 C 2,8 C 2,2 C 96 % 1024,8 hPa 0,0 l/m 0 min 0 min 0 W/m 19,3 km/h (3 Bft) 97,83 %
20.01.2022 06:36 3,2 C 2,8 C 2,2 C 96 % 1024,8 hPa 0,0 l/m 0 min 0 min 0 W/m 29,0 km/h (5 Bft) 97,87 %
20.01.2022 06:38 3,3 C 2,8 C 2,2 C 96 % 1024,8 hPa 0,0 l/m 0 min 0 min 0 W/m 22,5 km/h (4 Bft) 95,74 %
20.01.2022 06:40 3,3 C 2,8 C 2,2 C 96 % 1024,9 hPa 0,0 l/m 0 min 0 min 0 W/m 19,3 km/h (3 Bft) 93,62 %
20.01.2022 06:42 3,3 C 2,8 C 2,2 C 96 % 1024,9 hPa 0,0 l/m 0 min 0 min 0 W/m 19,3 km/h (3 Bft) 95,74 %
20.01.2022 06:44 3,3 C 2,8 C 2,2 C 96 % 1024,9 hPa 0,0 l/m 0 min 0 min 0 W/m 16,1 km/h (3 Bft) 100,00 %
20.01.2022 06:46 3,4 C 2,8 C 2,2 C 96 % 1024,9 hPa 0,0 l/m 0 min 2 min 0 W/m 19,3 km/h (3 Bft) 97,87 %
20.01.2022 06:48 3,4 C 2,8 C 2,2 C 96 % 1025,1 hPa 0,0 l/m 0 min 2 min 0 W/m 16,1 km/h (3 Bft) 94,34 %
20.01.2022 06:50 3,4 C 2,8 C 2,2 C 96 % 1025,0 hPa 0,0 l/m 0 min 2 min 0 W/m 16,1 km/h (3 Bft) 97,87 %
20.01.2022 06:52 3,4 C 2,8 C 2,2 C 96 % 1025,0 hPa 0,0 l/m 0 min 2 min 0 W/m 19,3 km/h (3 Bft) 95,83 %
20.01.2022 06:54 3,4 C 2,8 C 2,2 C 96 % 1025,1 hPa 0,0 l/m 0 min 2 min 0 W/m 12,9 km/h (3 Bft) 97,87 %
20.01.2022 06:56 3,4 C 2,8 C 2,2 C 96 % 1025,2 hPa 0,0 l/m 0 min 0 min 0 W/m 16,1 km/h (3 Bft) 97,92 %
20.01.2022 06:58 3,4 C 2,8 C 2,2 C 96 % 1025,2 hPa 0,0 l/m 0 min 2 min 0 W/m 19,3 km/h (3 Bft) 97,83 %
20.01.2022 07:00 3,4 C 2,8 C 2,2 C 96 % 1025,3 hPa 0,0 l/m 0 min 2 min 0 W/m 22,5 km/h (4 Bft) 97,87 %
20.01.2022 07:02 3,4 C 2,8 C 2,2 C 96 % 1025,4 hPa 0,0 l/m 0 min 2 min 0 W/m 25,7 km/h (4 Bft) 100,00 %
20.01.2022 07:04 3,4 C 2,8 C 2,2 C 96 % 1025,3 hPa 0,0 l/m 0 min 2 min 0 W/m 16,1 km/h (3 Bft) 97,92 %
20.01.2022 07:06 3,4 C 2,8 C 2,2 C 96 % 1025,5 hPa 0,0 l/m 0 min 0 min 0 W/m 22,5 km/h (4 Bft) 97,87 %
20.01.2022 07:08 3,4 C 2,8 C 2,2 C 96 % 1025,5 hPa 0,0 l/m 0 min 0 min 0 W/m 16,1 km/h (3 Bft) 97,83 %
20.01.2022 07:10 3,4 C 2,8 C 2,2 C 96 % 1025,5 hPa 0,0 l/m 0 min 0 min 0 W/m 19,3 km/h (3 Bft) 100,00 %
20.01.2022 07:12 3,4 C 2,8 C 2,2 C 96 % 1025,4 hPa 0,0 l/m 0 min 0 min 0 W/m 12,9 km/h (3 Bft) 100,00 %
20.01.2022 07:14 3,4 C 2,8 C 2,2 C 96 % 1025,3 hPa 0,0 l/m 0 min 0 min 0 W/m 12,9 km/h (3 Bft) 98,15 %
20.01.2022 07:16 3,3 C 2,8 C 2,2 C 96 % 1025,4 hPa 0,0 l/m 0 min 0 min 0 W/m 22,5 km/h (4 Bft) 100,00 %
20.01.2022 07:18 3,3 C 2,8 C 2,2 C 96 % 1025,3 hPa 0,0 l/m 0 min 0 min 0 W/m 22,5 km/h (4 Bft) 100,00 %
20.01.2022 07:20 3,3 C 2,8 C 2,2 C 96 % 1025,2 hPa 0,0 l/m 0 min 0 min 0 W/m 12,9 km/h (3 Bft) 100,00 %
20.01.2022 07:22 3,3 C 2,8 C 2,2 C 96 % 1025,2 hPa 0,0 l/m 0 min 0 min 0 W/m 12,9 km/h (3 Bft) 97,87 %
20.01.2022 07:24 3,3 C 2,8 C 2,2 C 96 % 1025,3 hPa 0,0 l/m 0 min 0 min 0 W/m 12,9 km/h (3 Bft) 100,00 %
20.01.2022 07:26 3,3 C 2,8 C 2,2 C 96 % 1025,3 hPa 0,0 l/m 0 min 0 min 0 W/m 9,7 km/h (2 Bft) 100,00 %
20.01.2022 07:28 3,2 C 2,8 C 1,7 C 96 % 1025,4 hPa 0,0 l/m 0 min 0 min 0 W/m 12,9 km/h (3 Bft) 100,00 %
20.01.2022 07:30 3,2 C 2,8 C 1,7 C 96 % 1025,5 hPa 0,0 l/m 0 min 0 min 0 W/m 9,7 km/h (2 Bft) 100,00 %
20.01.2022 07:32 3,2 C 2,8 C 1,7 C 96 % 1025,6 hPa 0,0 l/m 0 min 0 min 0 W/m 9,7 km/h (2 Bft) 97,87 %
20.01.2022 07:34 3,2 C 2,8 C 2,2 C 96 % 1025,6 hPa 0,0 l/m 0 min 0 min 0 W/m 12,9 km/h (3 Bft) 97,22 %
20.01.2022 07:36 3,2 C 2,8 C 2,2 C 96 % 1025,7 hPa 0,0 l/m 0 min 0 min 0 W/m 19,3 km/h (3 Bft) 97,87 %
20.01.2022 07:38 3,2 C 2,8 C 2,2 C 96 % 1025,8 hPa 0,0 l/m 0 min 0 min 0 W/m 12,9 km/h (3 Bft) 97,87 %
20.01.2022 07:40 3,2 C 2,8 C 2,2 C 96 % 1025,8 hPa 0,0 l/m 0 min 0 min 0 W/m 9,7 km/h (2 Bft) 97,87 %
20.01.2022 07:42 3,2 C 2,8 C 2,2 C 96 % 1025,8 hPa 0,0 l/m 0 min 0 min 0 W/m 12,9 km/h (3 Bft) 97,87 %
20.01.2022 07:44 3,1 C 2,8 C 2,2 C 96 % 1025,8 hPa 0,0 l/m 0 min 0 min 0 W/m 9,7 km/h (2 Bft) 97,87 %
20.01.2022 07:46 3,2 C 2,8 C 2,2 C 96 % 1025,9 hPa 0,0 l/m 0 min 0 min 0 W/m 9,7 km/h (2 Bft) 98,11 %
20.01.2022 07:48 3,2 C 2,8 C 2,2 C 96 % 1025,9 hPa 0,0 l/m 0 min 0 min 0 W/m 16,1 km/h (3 Bft) 95,83 %
20.01.2022 07:50 3,1 C 2,8 C 2,2 C 96 % 1026,0 hPa 0,0 l/m 0 min 0 min 0 W/m 19,3 km/h (3 Bft) 97,87 %
20.01.2022 07:52 3,2 C 2,8 C 2,2 C 96 % 1025,9 hPa 0,0 l/m 0 min 0 min 0 W/m 16,1 km/h (3 Bft) 97,87 %
20.01.2022 07:54 3,1 C 2,8 C 2,2 C 96 % 1026,0 hPa 0,0 l/m 0 min 0 min 0 W/m 12,9 km/h (3 Bft) 97,87 %
20.01.2022 07:56 3,1 C 2,8 C 2,2 C 96 % 1026,0 hPa 0,0 l/m 0 min 0 min 0 W/m 25,7 km/h (4 Bft) 97,87 %
20.01.2022 07:58 3,1 C 2,8 C 2,2 C 96 % 1026,0 hPa 0,0 l/m 0 min 0 min 0 W/m 16,1 km/h (3 Bft) 97,92 %
20.01.2022 08:00 3,1 C 2,8 C 2,2 C 96 % 1026,3 hPa 0,0 l/m 0 min 0 min 0 W/m 16,1 km/h (3 Bft) 97,87 %
20.01.2022 08:02 3,1 C 2,8 C 2,2 C 96 % 1026,2 hPa 0,0 l/m 0 min 0 min 0 W/m 32,2 km/h (5 Bft) 95,92 %
20.01.2022 08:04 3,1 C 2,8 C 2,2 C 96 % 1026,3 hPa 0,0 l/m 0 min 2 min 0 W/m 22,5 km/h (4 Bft) 97,87 %
20.01.2022 08:06 3,1 C 2,8 C 2,2 C 95 % 1026,4 hPa 0,0 l/m 0 min 0 min 0 W/m 25,7 km/h (4 Bft) 97,83 %
20.01.2022 08:08 3,1 C 2,8 C 2,2 C 95 % 1026,3 hPa 0,0 l/m 0 min 0 min 0 W/m 22,5 km/h (4 Bft) 97,30 %
20.01.2022 08:10 3,0 C 2,8 C 2,2 C 95 % 1026,4 hPa 0,0 l/m 0 min 0 min 0 W/m 19,3 km/h (3 Bft) 97,87 %
20.01.2022 08:12 3,0 C 2,8 C 1,7 C 95 % 1026,4 hPa 0,0 l/m 0 min 0 min 0 W/m 25,7 km/h (4 Bft) 95,83 %
20.01.2022 08:14 3,0 C 2,8 C 1,7 C 95 % 1026,4 hPa 0,0 l/m 0 min 0 min 0 W/m 29,0 km/h (5 Bft) 97,87 %
20.01.2022 08:16 2,9 C 2,8 C 1,7 C 95 % 1026,4 hPa 0,0 l/m 0 min 0 min 0 W/m 22,5 km/h (4 Bft) 95,74 %
20.01.2022 08:18 2,9 C 2,2 C 1,7 C 95 % 1026,5 hPa 0,0 l/m 0 min 0 min 0 W/m 19,3 km/h (3 Bft) 97,87 %
20.01.2022 08:20 2,9 C 2,2 C 1,7 C 94 % 1026,6 hPa 0,0 l/m 0 min 0 min 0 W/m 12,9 km/h (3 Bft) 95,65 %
20.01.2022 08:22 2,9 C 2,2 C 1,7 C 94 % 1026,7 hPa 0,0 l/m 0 min 0 min 0 W/m 9,7 km/h (2 Bft) 95,74 %
20.01.2022 08:24 2,9 C 2,2 C 1,7 C 94 % 1026,7 hPa 0,0 l/m 0 min 0 min 0 W/m 12,9 km/h (3 Bft) 95,74 %
20.01.2022 08:26 2,8 C 2,2 C 1,7 C 94 % 1026,7 hPa 0,0 l/m 0 min 0 min 0 W/m 16,1 km/h (3 Bft) 95,74 %
20.01.2022 08:28 2,9 C 2,2 C 1,7 C 94 % 1026,7 hPa 0,0 l/m 0 min 0 min 0 W/m 9,7 km/h (2 Bft) 93,62 %
20.01.2022 08:30 2,8 C 2,2 C 1,7 C 94 % 1026,8 hPa 0,0 l/m 0 min 0 min 0 W/m 9,7 km/h (2 Bft) 95,74 %
20.01.2022 08:32 2,8 C 2,2 C 1,7 C 94 % 1026,8 hPa 0,0 l/m 0 min 0 min 1 W/m 9,7 km/h (2 Bft) 96,23 %
20.01.2022 08:34 2,8 C 2,2 C 1,7 C 94 % 1026,8 hPa 0,0 l/m 0 min 0 min 5 W/m 12,9 km/h (3 Bft) 95,83 %
20.01.2022 08:36 2,8 C 2,2 C 1,7 C 94 % 1026,8 hPa 0,0 l/m 0 min 0 min 5 W/m 9,7 km/h (2 Bft) 91,84 %
20.01.2022 08:38 2,8 C 2,2 C 1,7 C 94 % 1026,8 hPa 0,0 l/m 0 min 0 min 7 W/m 9,7 km/h (2 Bft) 93,62 %
20.01.2022 08:40 2,8 C 2,2 C 1,7 C 94 % 1026,8 hPa 0,0 l/m 0 min 0 min 11 W/m 9,7 km/h (2 Bft) 94,44 %
20.01.2022 08:42 2,8 C 2,2 C 1,7 C 94 % 1026,8 hPa 0,0 l/m 0 min 0 min 12 W/m 9,7 km/h (2 Bft) 95,74 %
20.01.2022 08:44 2,8 C 2,2 C 1,7 C 94 % 1026,9 hPa 0,0 l/m 0 min 0 min 11 W/m 6,4 km/h (2 Bft) 93,48 %
20.01.2022 08:47 2,8 C 2,2 C 1,7 C 94 % 1026,9 hPa 0,0 l/m 0 min 0 min 10 W/m 9,7 km/h (2 Bft) 95,00 %
20.01.2022 08:48 2,8 C 2,2 C 1,7 C 94 % 1026,9 hPa 0,0 l/m 0 min 0 min 11 W/m 9,7 km/h (2 Bft) 95,83 %
20.01.2022 08:50 2,8 C 2,2 C 1,7 C 94 % 1026,9 hPa 0,0 l/m 0 min 0 min 11 W/m 6,4 km/h (2 Bft) 95,83 %
20.01.2022 08:52 2,7 C 2,2 C 1,7 C 94 % 1026,9 hPa 0,0 l/m 0 min 0 min 12 W/m 9,7 km/h (2 Bft) 91,30 %
20.01.2022 08:54 2,7 C 2,2 C 1,7 C 94 % 1026,9 hPa 0,0 l/m 0 min 0 min 13 W/m 12,9 km/h (3 Bft) 93,62 %
20.01.2022 08:56 2,7 C 1,7 C 1,7 C 94 % 1027,0 hPa 0,0 l/m 0 min 0 min 14 W/m 6,4 km/h (2 Bft) 97,22 %
20.01.2022 08:58 2,7 C 1,7 C 1,7 C 94 % 1027,0 hPa 0,0 l/m 0 min 0 min 16 W/m 12,9 km/h (3 Bft) 95,83 %
20.01.2022 09:00 2,7 C 1,7 C 1,7 C 94 % 1027,1 hPa 0,0 l/m 0 min 0 min 23 W/m 6,4 km/h (2 Bft) 97,92 %
20.01.2022 09:02 2,7 C 2,2 C 1,7 C 94 % 1027,1 hPa 0,0 l/m 0 min 0 min 34 W/m 12,9 km/h (3 Bft) 97,92 %
20.01.2022 09:04 2,6 C 2,2 C 1,7 C 94 % 1027,1 hPa 0,0 l/m 2 min 0 min 40 W/m 6,4 km/h (2 Bft) 94,12 %
20.01.2022 09:06 2,6 C 2,2 C 1,7 C 94 % 1027,2 hPa 0,0 l/m 0 min 0 min 34 W/m 6,4 km/h (2 Bft) 97,92 %
20.01.2022 09:08 2,6 C 2,2 C 1,7 C 94 % 1027,2 hPa 0,0 l/m 0 min 0 min 35 W/m 6,4 km/h (2 Bft) 100,00 %
20.01.2022 09:10 2,7 C 2,2 C 1,7 C 94 % 1027,2 hPa 0,0 l/m 0 min 0 min 35 W/m 6,4 km/h (2 Bft) 100,00 %
20.01.2022 09:12 2,7 C 2,2 C 1,7 C 94 % 1027,3 hPa 0,0 l/m 0 min 0 min 21 W/m 6,4 km/h (2 Bft) 100,00 %
20.01.2022 09:14 2,7 C 2,2 C 1,7 C 95 % 1027,3 hPa 0,0 l/m 0 min 0 min 15 W/m 9,7 km/h (2 Bft) 97,14 %
20.01.2022 09:16 2,7 C 2,2 C 1,7 C 95 % 1027,2 hPa 0,0 l/m 0 min 0 min 15 W/m 6,4 km/h (2 Bft) 97,87 %
20.01.2022 09:18 2,7 C 2,2 C 1,7 C 95 % 1027,2 hPa 0,0 l/m 0 min 0 min 18 W/m 9,7 km/h (2 Bft) 100,00 %
20.01.2022 09:20 2,6 C 2,2 C 1,7 C 95 % 1027,3 hPa 0,0 l/m 0 min 0 min 26 W/m 9,7 km/h (2 Bft) 100,00 %
20.01.2022 09:22 2,6 C 2,2 C 1,7 C 95 % 1027,3 hPa 0,0 l/m 0 min 0 min 44 W/m 6,4 km/h (2 Bft) 100,00 %
20.01.2022 09:24 2,6 C 2,2 C 1,7 C 95 % 1027,3 hPa 0,0 l/m 0 min 0 min 60 W/m 9,7 km/h (2 Bft) 100,00 %
20.01.2022 09:26 2,6 C 2,2 C 1,7 C 95 % 1027,4 hPa 0,0 l/m 2 min 0 min 75 W/m 9,7 km/h (2 Bft) 100,00 %
20.01.2022 09:28 2,6 C 2,8 C 1,7 C 95 % 1027,5 hPa 0,0 l/m 2 min 0 min 88 W/m 32,2 km/h (5 Bft) 100,00 %
20.01.2022 09:30 2,6 C 2,8 C 2,2 C 95 % 1027,5 hPa 0,0 l/m 2 min 0 min 108 W/m 35,4 km/h (5 Bft) 100,00 %
20.01.2022 09:32 2,7 C 3,3 C 2,2 C 95 % 1027,6 hPa 0,0 l/m 2 min 0 min 110 W/m 25,7 km/h (4 Bft) 100,00 %
20.01.2022 09:34 2,7 C 3,3 C 2,2 C 94 % 1027,6 hPa 0,0 l/m 2 min 0 min 87 W/m 35,4 km/h (5 Bft) 100,00 %
20.01.2022 09:36 2,8 C 3,3 C 2,2 C 94 % 1027,6 hPa 0,0 l/m 0 min 0 min 71 W/m 25,7 km/h (4 Bft) 97,87 %
20.01.2022 09:38 2,8 C 3,3 C 2,2 C 94 % 1027,6 hPa 0,0 l/m 0 min 0 min 58 W/m 22,5 km/h (4 Bft) 100,00 %
20.01.2022 09:40 2,9 C 3,3 C 2,2 C 93 % 1027,6 hPa 0,0 l/m 0 min 2 min 44 W/m 32,2 km/h (5 Bft) 100,00 %
20.01.2022 09:42 2,9 C 2,8 C 2,2 C 93 % 1027,5 hPa 0,0 l/m 0 min 0 min 41 W/m 25,7 km/h (4 Bft) 100,00 %
20.01.2022 09:44 2,9 C 2,8 C 2,2 C 93 % 1027,4 hPa 0,0 l/m 0 min 0 min 40 W/m 25,7 km/h (4 Bft) 100,00 %
20.01.2022 09:46 2,9 C 2,8 C 2,2 C 92 % 1027,4 hPa 0,0 l/m 0 min 0 min 40 W/m 19,3 km/h (3 Bft) 100,00 %
20.01.2022 09:48 2,9 C 2,8 C 2,2 C 92 % 1027,4 hPa 0,0 l/m 0 min 0 min 40 W/m 12,9 km/h (3 Bft) 100,00 %
20.01.2022 09:50 2,8 C 2,8 C 1,7 C 91 % 1027,5 hPa 0,0 l/m 0 min 0 min 41 W/m 19,3 km/h (3 Bft) 100,00 %
20.01.2022 09:52 2,8 C 2,8 C 1,7 C 90 % 1027,5 hPa 0,0 l/m 0 min 0 min 52 W/m 9,7 km/h (2 Bft) 100,00 %
20.01.2022 09:54 2,8 C 2,8 C 1,7 C 90 % 1027,5 hPa 0,0 l/m 0 min 0 min 69 W/m 12,9 km/h (3 Bft) 100,00 %
20.01.2022 09:56 2,8 C 2,8 C 1,7 C 90 % 1027,5 hPa 0,0 l/m 0 min 0 min 67 W/m 9,7 km/h (2 Bft) 100,00 %
20.01.2022 09:58 2,7 C 2,8 C 1,7 C 90 % 1027,6 hPa 0,0 l/m 0 min 0 min 59 W/m 12,9 km/h (3 Bft) 100,00 %
20.01.2022 10:00 2,7 C 2,8 C 1,7 C 90 % 1027,6 hPa 0,0 l/m 0 min 0 min 56 W/m 9,7 km/h (2 Bft) 58,33 %
20.01.2022 10:02 2,7 C 2,8 C 1,7 C 90 % 1027,6 hPa 0,0 l/m 0 min 0 min 51 W/m 9,7 km/h (2 Bft) 100,00 %
20.01.2022 10:04 2,7 C 2,8 C 1,7 C 89 % 1027,6 hPa 0,0 l/m 0 min 0 min 46 W/m 16,1 km/h (3 Bft) 100,00 %
20.01.2022 10:06 2,7 C 2,8 C 1,7 C 89 % 1027,7 hPa 0,0 l/m 0 min 0 min 55 W/m 16,1 km/h (3 Bft) 97,83 %
20.01.2022 10:08 2,6 C 2,8 C 1,7 C 89 % 1027,8 hPa 0,0 l/m 0 min 0 min 102 W/m 25,7 km/h (4 Bft) 100,00 %
20.01.2022 10:10 2,6 C 2,8 C 1,7 C 89 % 1027,8 hPa 0,0 l/m 2 min 0 min 153 W/m 22,5 km/h (4 Bft) 100,00 %
20.01.2022 10:12 2,7 C 2,8 C 1,7 C 89 % 1027,9 hPa 0,0 l/m 2 min 0 min 201 W/m 19,3 km/h (3 Bft) 100,00 %
20.01.2022 10:14 2,7 C 2,8 C 1,7 C 88 % 1027,9 hPa 0,0 l/m 2 min 0 min 238 W/m 9,7 km/h (2 Bft) 100,00 %
20.01.2022 10:16 2,8 C 3,3 C 2,2 C 88 % 1028,0 hPa 0,0 l/m 2 min 0 min 190 W/m 12,9 km/h (3 Bft) 97,87 %
20.01.2022 10:18 2,9 C 3,3 C 2,2 C 88 % 1028,0 hPa 0,0 l/m 2 min 0 min 158 W/m 16,1 km/h (3 Bft) 100,00 %
20.01.2022 10:20 2,9 C 3,3 C 2,2 C 88 % 1028,0 hPa 0,0 l/m 2 min 0 min 152 W/m 12,9 km/h (3 Bft) 97,87 %
20.01.2022 10:22 3,0 C 3,3 C 2,2 C 88 % 1028,1 hPa 0,0 l/m 2 min 0 min 126 W/m 16,1 km/h (3 Bft) 97,87 %
20.01.2022 10:24 3,1 C 3,3 C 2,2 C 87 % 1028,1 hPa 0,0 l/m 0 min 0 min 110 W/m 12,9 km/h (3 Bft) 98,11 %
20.01.2022 10:26 3,1 C 3,3 C 2,2 C 87 % 1028,0 hPa 0,0 l/m 0 min 0 min 89 W/m 16,1 km/h (3 Bft) 97,56 %
20.01.2022 10:28 3,2 C 3,3 C 2,2 C 87 % 1028,1 hPa 0,0 l/m 0 min 0 min 76 W/m 16,1 km/h (3 Bft) 96,23 %
20.01.2022 10:30 3,2 C 3,3 C 2,2 C 88 % 1028,0 hPa 0,0 l/m 0 min 0 min 76 W/m 22,5 km/h (4 Bft) 97,87 %
20.01.2022 10:32 3,2 C 3,3 C 2,2 C 87 % 1028,0 hPa 0,0 l/m 0 min 0 min 72 W/m 16,1 km/h (3 Bft) 97,92 %
20.01.2022 10:34 3,2 C 2,8 C 2,2 C 87 % 1028,0 hPa 0,0 l/m 0 min 0 min 72 W/m 12,9 km/h (3 Bft) 97,87 %
20.01.2022 10:36 3,2 C 2,8 C 2,2 C 87 % 1028,0 hPa 0,0 l/m 0 min 0 min 73 W/m 19,3 km/h (3 Bft) 97,92 %
20.01.2022 10:38 3,2 C 3,3 C 2,2 C 87 % 1028,1 hPa 0,0 l/m 0 min 0 min 86 W/m 9,7 km/h (2 Bft) 97,37 %
20.01.2022 10:40 3,2 C 3,3 C 2,2 C 87 % 1028,1 hPa 0,0 l/m 0 min 0 min 72 W/m 19,3 km/h (3 Bft) 93,48 %
20.01.2022 10:42 3,2 C 2,8 C 2,2 C 87 % 1028,2 hPa 0,0 l/m 0 min 0 min 43 W/m 12,9 km/h (3 Bft) 92,45 %
20.01.2022 10:44 3,2 C 2,8 C 2,2 C 87 % 1028,3 hPa 0,0 l/m 0 min 2 min 31 W/m 16,1 km/h (3 Bft) 95,83 %
20.01.2022 10:46 3,2 C 2,8 C 1,7 C 87 % 1028,3 hPa 0,0 l/m 0 min 2 min 37 W/m 38,6 km/h (5 Bft) 95,83 %
20.01.2022 10:48 3,1 C 2,8 C 1,7 C 87 % 1028,3 hPa 0,0 l/m 0 min 2 min 44 W/m 29,0 km/h (5 Bft) 93,48 %
20.01.2022 10:50 3,0 C 2,2 C 1,7 C 87 % 1028,3 hPa 0,0 l/m 0 min 2 min 50 W/m 25,7 km/h (4 Bft) 95,83 %
20.01.2022 10:52 3,0 C 2,2 C 1,7 C 87 % 1028,4 hPa 0,0 l/m 0 min 2 min 62 W/m 16,1 km/h (3 Bft) 95,74 %
20.01.2022 10:54 2,9 C 2,8 C 1,7 C 87 % 1028,4 hPa 0,0 l/m 0 min 2 min 72 W/m 19,3 km/h (3 Bft) 95,74 %
20.01.2022 10:56 2,9 C 2,8 C 1,7 C 88 % 1028,5 hPa 0,0 l/m 0 min 0 min 91 W/m 29,0 km/h (5 Bft) 95,74 %
20.01.2022 10:58 2,9 C 2,8 C 1,7 C 88 % 1028,5 hPa 0,0 l/m 0 min 2 min 98 W/m 19,3 km/h (3 Bft) 91,49 %
20.01.2022 11:00 2,8 C 2,8 C 1,7 C 88 % 1028,5 hPa 0,0 l/m 0 min 2 min 64 W/m 32,2 km/h (5 Bft) 97,87 %
20.01.2022 11:02 2,8 C 2,2 C 1,7 C 88 % 1028,5 hPa 0,0 l/m 0 min 2 min 61 W/m 32,2 km/h (5 Bft) 97,67 %
20.01.2022 11:04 2,8 C 2,2 C 1,1 C 88 % 1028,5 hPa 0,0 l/m 0 min 2 min 66 W/m 35,4 km/h (5 Bft) 96,00 %
20.01.2022 11:06 2,8 C 2,2 C 1,1 C 88 % 1028,5 hPa 0,0 l/m 0 min 2 min 54 W/m 29,0 km/h (5 Bft) 95,74 %
20.01.2022 11:08 2,7 C 2,2 C 1,1 C 88 % 1028,5 hPa 0,0 l/m 0 min 2 min 64 W/m 32,2 km/h (5 Bft) 93,62 %
20.01.2022 11:10 2,7 C 2,2 C 1,1 C 89 % 1028,4 hPa 0,0 l/m 0 min 2 min 73 W/m 12,9 km/h (3 Bft) 95,74 %
20.01.2022 11:12 2,7 C 2,2 C 1,1 C 89 % 1028,5 hPa 0,0 l/m 0 min 0 min 75 W/m 25,7 km/h (4 Bft) 94,29 %
20.01.2022 11:14 2,7 C 2,2 C 1,1 C 89 % 1028,5 hPa 0,0 l/m 0 min 0 min 68 W/m 25,7 km/h (4 Bft) 94,23 %
20.01.2022 11:16 2,6 C 2,2 C 1,1 C 89 % 1028,5 hPa 0,0 l/m 0 min 0 min 59 W/m 16,1 km/h (3 Bft) 95,12 %
20.01.2022 11:18 2,6 C 2,2 C 1,1 C 89 % 1028,4 hPa 0,0 l/m 0 min 0 min 56 W/m 9,7 km/h (2 Bft) 92,59 %
20.01.2022 11:20 2,6 C 2,8 C 1,1 C 90 % 1028,4 hPa 0,0 l/m 0 min 0 min 68 W/m 9,7 km/h (2 Bft) 93,75 %
20.01.2022 11:22 2,6 C 4,4 C 1,1 C 90 % 1028,5 hPa 0,0 l/m 0 min 0 min 156 W/m 16,1 km/h (3 Bft) 91,67 %
20.01.2022 11:24 2,7 C 6,1 C 1,7 C 90 % 1028,5 hPa 0,0 l/m 2 min 0 min 379 W/m 12,9 km/h (3 Bft) 95,74 %
20.01.2022 11:26 2,8 C 5,6 C 1,7 C 90 % 1028,5 hPa 0,0 l/m 2 min 0 min 247 W/m 12,9 km/h (3 Bft) 93,75 %
20.01.2022 11:28 2,9 C 4,4 C 1,7 C 90 % 1028,5 hPa 0,0 l/m 0 min 0 min 138 W/m 16,1 km/h (3 Bft) 95,83 %
20.01.2022 11:30 2,9 C 3,9 C 1,7 C 90 % 1028,5 hPa 0,0 l/m 0 min 0 min 75 W/m 12,9 km/h (3 Bft) 97,87 %
20.01.2022 11:32 2,9 C 3,3 C 1,7 C 90 % 1028,5 hPa 0,0 l/m 0 min 0 min 51 W/m 12,9 km/h (3 Bft) 97,87 %
20.01.2022 11:34 2,9 C 3,3 C 1,7 C 90 % 1028,6 hPa 0,0 l/m 0 min 0 min 41 W/m 9,7 km/h (2 Bft) 97,87 %
20.01.2022 11:36 2,9 C 2,8 C 1,7 C 90 % 1028,7 hPa 0,0 l/m 0 min 0 min 34 W/m 19,3 km/h (3 Bft) 95,65 %
20.01.2022 11:38 2,9 C 2,8 C 1,7 C 90 % 1028,8 hPa 0,0 l/m 0 min 0 min 38 W/m 19,3 km/h (3 Bft) 97,62 %
20.01.2022 11:40 2,9 C 2,8 C 1,7 C 90 % 1029,0 hPa 0,0 l/m 0 min 2 min 41 W/m 19,3 km/h (3 Bft) 97,87 %
20.01.2022 11:42 2,9 C 2,8 C 1,7 C 90 % 1029,0 hPa 0,0 l/m 0 min 0 min 61 W/m 19,3 km/h (3 Bft) 95,74 %
20.01.2022 11:44 2,9 C 2,8 C 1,1 C 90 % 1029,0 hPa 0,0 l/m 0 min 0 min 91 W/m 16,1 km/h (3 Bft) 93,62 %
20.01.2022 11:46 2,9 C 2,8 C 1,1 C 90 % 1029,0 hPa 0,0 l/m 0 min 0 min 95 W/m 12,9 km/h (3 Bft) 97,92 %
20.01.2022 11:48 2,9 C 2,8 C 1,1 C 90 % 1028,9 hPa 0,0 l/m 0 min 0 min 86 W/m 16,1 km/h (3 Bft) 93,62 %
20.01.2022 11:50 2,9 C 2,8 C 1,1 C 90 % 1028,9 hPa 0,0 l/m 0 min 0 min 88 W/m 16,1 km/h (3 Bft) 99,12 %
20.01.2022 11:52 2,9 C 2,8 C 1,1 C 90 % 1028,9 hPa 0,0 l/m 0 min 2 min 113 W/m 25,7 km/h (4 Bft) 97,30 %
20.01.2022 11:54 2,8 C 2,8 C 1,1 C 90 % 1028,9 hPa 0,0 l/m 0 min 2 min 130 W/m 16,1 km/h (3 Bft) 95,74 %
20.01.2022 11:56 2,8 C 2,8 C 1,7 C 90 % 1029,0 hPa 0,0 l/m 0 min 2 min 104 W/m 22,5 km/h (4 Bft) 97,14 %
20.01.2022 11:58 2,8 C 2,8 C 1,1 C 90 % 1029,0 hPa 0,0 l/m 0 min 2 min 70 W/m 22,5 km/h (4 Bft) 100,00 %
20.01.2022 12:00 2,8 C 2,8 C 1,1 C 89 % 1028,9 hPa 0,0 l/m 0 min 0 min 66 W/m 12,9 km/h (3 Bft) 100,00 %
20.01.2022 12:02 2,8 C 2,8 C 1,1 C 89 % 1028,9 hPa 0,0 l/m 0 min 0 min 79 W/m 22,5 km/h (4 Bft) 100,00 %
20.01.2022 12:04 2,8 C 2,8 C 1,1 C 89 % 1028,9 hPa 0,0 l/m 0 min 0 min 87 W/m 16,1 km/h (3 Bft) 100,00 %
20.01.2022 12:08 2,7 C 2,2 C 1,1 C 90 % 1028,9 hPa 0,0 l/m 0 min 0 min 99 W/m 12,9 km/h (3 Bft) 100,00 %
20.01.2022 12:10 2,7 C 2,2 C 1,1 C 90 % 1028,9 hPa 0,0 l/m 0 min 0 min 112 W/m 9,7 km/h (2 Bft) 100,00 %
20.01.2022 12:12 2,6 C 2,2 C 1,1 C 90 % 1028,9 hPa 0,0 l/m 0 min 0 min 120 W/m 16,1 km/h (3 Bft) 100,00 %
20.01.2022 12:14 2,6 C 2,8 C 1,1 C 91 % 1028,9 hPa 0,0 l/m 0 min 0 min 132 W/m 9,7 km/h (2 Bft) 100,00 %
20.01.2022 12:16 2,6 C 2,8 C 1,1 C 91 % 1028,9 hPa 0,0 l/m 0 min 0 min 119 W/m 16,1 km/h (3 Bft) 100,00 %
20.01.2022 12:18 2,6 C 2,8 C 1,1 C 91 % 1028,9 hPa 0,0 l/m 0 min 0 min 85 W/m 9,7 km/h (2 Bft) 97,87 %
20.01.2022 12:20 2,6 C 2,8 C 1,1 C 91 % 1028,9 hPa 0,0 l/m 0 min 0 min 60 W/m 16,1 km/h (3 Bft) 100,00 %
20.01.2022 12:22 2,6 C 2,2 C 1,1 C 92 % 1028,9 hPa 0,0 l/m 0 min 0 min 52 W/m 9,7 km/h (2 Bft) 100,00 %
20.01.2022 12:24 2,5 C 2,2 C 0,6 C 92 % 1028,9 hPa 0,0 l/m 0 min 0 min 64 W/m 16,1 km/h (3 Bft) 97,87 %
20.01.2022 12:26 2,5 C 2,8 C 0,6 C 92 % 1028,9 hPa 0,0 l/m 0 min 0 min 114 W/m 9,7 km/h (2 Bft) 97,22 %
20.01.2022 12:28 2,6 C 4,4 C 1,1 C 92 % 1028,8 hPa 0,0 l/m 2 min 0 min 205 W/m 12,9 km/h (3 Bft) 97,92 %
20.01.2022 12:30 2,7 C 5,0 C 1,1 C 93 % 1028,8 hPa 0,0 l/m 2 min 0 min 236 W/m 12,9 km/h (3 Bft) 97,87 %
20.01.2022 12:32 2,8 C 5,6 C 1,7 C 93 % 1028,8 hPa 0,0 l/m 2 min 0 min 224 W/m 16,1 km/h (3 Bft) 97,96 %
20.01.2022 12:34 2,9 C 5,0 C 1,7 C 93 % 1028,8 hPa 0,0 l/m 2 min 0 min 188 W/m 16,1 km/h (3 Bft) 97,83 %
20.01.2022 12:36 3,0 C 4,4 C 1,7 C 93 % 1028,7 hPa 0,0 l/m 0 min 0 min 156 W/m 16,1 km/h (3 Bft) 97,87 %
20.01.2022 12:38 3,1 C 3,9 C 1,7 C 93 % 1028,7 hPa 0,0 l/m 0 min 0 min 121 W/m 12,9 km/h (3 Bft) 97,87 %
20.01.2022 12:40 3,1 C 4,4 C 1,7 C 93 % 1028,7 hPa 0,0 l/m 0 min 0 min 154 W/m 16,1 km/h (3 Bft) 97,87 %
20.01.2022 12:42 3,1 C 4,4 C 1,7 C 93 % 1028,7 hPa 0,0 l/m 0 min 0 min 149 W/m 16,1 km/h (3 Bft) 95,74 %
20.01.2022 12:44 3,2 C 5,0 C 1,7 C 93 % 1028,6 hPa 0,0 l/m 0 min 0 min 169 W/m 9,7 km/h (2 Bft) 97,87 %
20.01.2022 12:46 3,2 C 5,6 C 1,7 C 93 % 1028,7 hPa 0,0 l/m 2 min 0 min 194 W/m 25,7 km/h (4 Bft) 97,83 %
20.01.2022 12:48 3,3 C 5,0 C 1,7 C 93 % 1028,6 hPa 0,0 l/m 0 min 0 min 128 W/m 16,1 km/h (3 Bft) 98,15 %
20.01.2022 12:50 3,3 C 6,1 C 1,7 C 93 % 1028,6 hPa 0,0 l/m 2 min 0 min 188 W/m 9,7 km/h (2 Bft) 97,87 %
20.01.2022 12:52 3,4 C 7,2 C 1,7 C 92 % 1028,6 hPa 0,0 l/m 2 min 0 min 329 W/m 16,1 km/h (3 Bft) 97,83 %
20.01.2022 12:54 3,6 C 8,9 C 1,7 C 92 % 1028,5 hPa 0,0 l/m 2 min 0 min 342 W/m 19,3 km/h (3 Bft) 95,74 %
20.01.2022 12:56 3,7 C 8,9 C 2,2 C 92 % 1028,5 hPa 0,0 l/m 2 min 0 min 355 W/m 16,1 km/h (3 Bft) 72,92 %
20.01.2022 12:58 3,8 C 6,7 C 2,2 C 91 % 1028,4 hPa 0,0 l/m 2 min 0 min 282 W/m 22,5 km/h (4 Bft) 72,73 %
20.01.2022 13:00 3,8 C 7,2 C 2,2 C 90 % 1028,5 hPa 0,0 l/m 0 min 0 min 168 W/m 16,1 km/h (3 Bft) 100,00 %
20.01.2022 13:02 3,9 C 9,4 C 2,2 C 90 % 1028,6 hPa 0,0 l/m 2 min 0 min 386 W/m 22,5 km/h (4 Bft) 98,00 %
20.01.2022 13:04 4,0 C 7,8 C 2,2 C 89 % 1028,5 hPa 0,0 l/m 2 min 0 min 231 W/m 25,7 km/h (4 Bft) 97,87 %
20.01.2022 13:06 4,1 C 6,7 C 2,2 C 89 % 1028,5 hPa 0,0 l/m 0 min 0 min 82 W/m 16,1 km/h (3 Bft) 100,00 %
20.01.2022 13:08 4,1 C 8,9 C 2,2 C 88 % 1028,4 hPa 0,0 l/m 2 min 0 min 233 W/m 19,3 km/h (3 Bft) 100,00 %
20.01.2022 13:10 4,1 C 10,0 C 2,2 C 88 % 1028,4 hPa 0,0 l/m 2 min 0 min 355 W/m 16,1 km/h (3 Bft) 97,96 %
20.01.2022 13:12 4,2 C 8,9 C 2,2 C 87 % 1028,4 hPa 0,0 l/m 2 min 0 min 304 W/m 19,3 km/h (3 Bft) 100,00 %
20.01.2022 13:14 4,3 C 8,3 C 2,2 C 87 % 1028,4 hPa 0,0 l/m 2 min 0 min 190 W/m 22,5 km/h (4 Bft) 100,00 %
20.01.2022 13:16 4,3 C 6,7 C 2,2 C 86 % 1028,4 hPa 0,0 l/m 0 min 0 min 97 W/m 22,5 km/h (4 Bft) 95,74 %
20.01.2022 13:18 4,2 C 6,1 C 2,2 C 86 % 1028,4 hPa 0,0 l/m 0 min 0 min 82 W/m 16,1 km/h (3 Bft) 100,00 %
20.01.2022 13:20 4,3 C 8,3 C 2,2 C 86 % 1028,3 hPa 0,0 l/m 2 min 0 min 263 W/m 19,3 km/h (3 Bft) 97,87 %
20.01.2022 13:22 4,3 C 10,0 C 2,2 C 86 % 1028,2 hPa 0,0 l/m 2 min 0 min 359 W/m 16,1 km/h (3 Bft) 100,00 %
20.01.2022 13:24 4,3 C 9,4 C 2,2 C 85 % 1028,2 hPa 0,0 l/m 2 min 0 min 260 W/m 25,7 km/h (4 Bft) 100,00 %
20.01.2022 13:26 4,4 C 10,0 C 2,2 C 85 % 1028,1 hPa 0,0 l/m 2 min 0 min 305 W/m 16,1 km/h (3 Bft) 100,00 %
20.01.2022 13:28 4,5 C 10,6 C 2,2 C 85 % 1028,2 hPa 0,0 l/m 2 min 0 min 380 W/m 16,1 km/h (3 Bft) 100,00 %
20.01.2022 13:30 4,6 C 10,6 C 2,8 C 85 % 1028,2 hPa 0,0 l/m 2 min 0 min 412 W/m 19,3 km/h (3 Bft) 97,87 %
20.01.2022 13:32 4,7 C 8,3 C 2,8 C 85 % 1028,2 hPa 0,0 l/m 2 min 0 min 259 W/m 19,3 km/h (3 Bft) 95,74 %
20.01.2022 13:34 4,7 C 6,1 C 2,8 C 84 % 1028,2 hPa 0,0 l/m 0 min 0 min 139 W/m 12,9 km/h (3 Bft) 97,83 %
20.01.2022 13:36 4,6 C 5,6 C 2,2 C 84 % 1028,2 hPa 0,2 l/m 0 min 0 min 106 W/m 19,3 km/h (3 Bft) 97,87 %
20.01.2022 13:38 4,5 C 5,0 C 2,2 C 83 % 1028,2 hPa 0,0 l/m 0 min 0 min 125 W/m 22,5 km/h (4 Bft) 95,74 %
20.01.2022 13:40 4,5 C 6,1 C 2,2 C 83 % 1028,2 hPa 0,0 l/m 2 min 0 min 208 W/m 16,1 km/h (3 Bft) 97,87 %
20.01.2022 13:42 4,5 C 6,7 C 2,2 C 83 % 1028,2 hPa 0,0 l/m 2 min 0 min 210 W/m 12,9 km/h (3 Bft) 95,74 %
20.01.2022 13:44 4,6 C 6,1 C 2,2 C 83 % 1028,2 hPa 0,0 l/m 2 min 0 min 182 W/m 22,5 km/h (4 Bft) 97,87 %
20.01.2022 13:46 4,6 C 6,7 C 2,8 C 83 % 1028,2 hPa 0,0 l/m 2 min 0 min 185 W/m 12,9 km/h (3 Bft) 97,83 %
20.01.2022 13:48 4,6 C 7,8 C 2,8 C 83 % 1028,2 hPa 0,0 l/m 2 min 0 min 381 W/m 25,7 km/h (4 Bft) 97,87 %
20.01.2022 13:50 4,7 C 7,2 C 2,8 C 83 % 1028,1 hPa 0,0 l/m 2 min 0 min 299 W/m 25,7 km/h (4 Bft) 97,87 %
20.01.2022 13:52 4,7 C 6,1 C 2,8 C 82 % 1028,1 hPa 0,0 l/m 2 min 0 min 177 W/m 16,1 km/h (3 Bft) 97,87 %
20.01.2022 13:54 4,8 C 7,8 C 2,8 C 82 % 1028,0 hPa 0,0 l/m 2 min 0 min 294 W/m 19,3 km/h (3 Bft) 95,74 %
20.01.2022 13:56 4,8 C 7,8 C 2,8 C 82 % 1027,9 hPa 0,0 l/m 2 min 0 min 305 W/m 19,3 km/h (3 Bft) 97,83 %
20.01.2022 13:58 4,9 C 6,1 C 2,8 C 81 % 1028,0 hPa 0,0 l/m 0 min 0 min 102 W/m 29,0 km/h (5 Bft) 97,87 %
20.01.2022 14:00 4,8 C 5,0 C 2,2 C 81 % 1028,0 hPa 0,0 l/m 0 min 0 min 79 W/m 25,7 km/h (4 Bft) 97,87 %
20.01.2022 14:02 4,8 C 4,4 C 2,2 C 80 % 1028,0 hPa 0,0 l/m 0 min 0 min 64 W/m 35,4 km/h (5 Bft) 96,30 %
20.01.2022 14:04 4,7 C 4,4 C 2,2 C 80 % 1028,0 hPa 0,0 l/m 0 min 0 min 41 W/m 25,7 km/h (4 Bft) 97,87 %
20.01.2022 14:06 4,6 C 3,9 C 2,2 C 79 % 1028,0 hPa 0,0 l/m 0 min 0 min 33 W/m 22,5 km/h (4 Bft) 97,92 %
20.01.2022 14:08 4,5 C 3,9 C 1,7 C 80 % 1028,2 hPa 0,0 l/m 0 min 0 min 30 W/m 32,2 km/h (5 Bft) 96,00 %
20.01.2022 14:10 4,4 C 3,9 C 1,7 C 80 % 1028,2 hPa 0,0 l/m 0 min 0 min 32 W/m 16,1 km/h (3 Bft) 95,74 %
20.01.2022 14:12 4,3 C 3,9 C 1,7 C 81 % 1028,3 hPa 0,0 l/m 0 min 0 min 41 W/m 32,2 km/h (5 Bft) 95,74 %
20.01.2022 14:14 4,3 C 3,3 C 1,7 C 81 % 1028,3 hPa 0,0 l/m 0 min 0 min 66 W/m 35,4 km/h (5 Bft) 97,14 %
20.01.2022 14:16 4,2 C 3,3 C 1,1 C 82 % 1028,4 hPa 0,0 l/m 0 min 0 min 80 W/m 16,1 km/h (3 Bft) 100,00 %
20.01.2022 14:18 4,1 C 3,9 C 1,1 C 82 % 1028,4 hPa 0,0 l/m 0 min 0 min 84 W/m 19,3 km/h (3 Bft) 100,00 %
20.01.2022 14:20 4,1 C 3,9 C 1,7 C 83 % 1028,4 hPa 0,0 l/m 0 min 0 min 93 W/m 19,3 km/h (3 Bft) 97,87 %
20.01.2022 14:22 4,1 C 3,9 C 1,7 C 84 % 1028,4 hPa 0,0 l/m 0 min 0 min 91 W/m 12,9 km/h (3 Bft) 97,83 %
20.01.2022 14:24 4,1 C 3,9 C 1,7 C 84 % 1028,2 hPa 0,0 l/m 0 min 0 min 80 W/m 22,5 km/h (4 Bft) 97,87 %
20.01.2022 14:26 4,1 C 3,9 C 1,7 C 84 % 1028,2 hPa 0,0 l/m 0 min 0 min 82 W/m 9,7 km/h (2 Bft) 95,74 %
20.01.2022 14:28 4,1 C 4,4 C 1,7 C 84 % 1028,2 hPa 0,0 l/m 0 min 0 min 105 W/m 12,9 km/h (3 Bft) 97,87 %
20.01.2022 14:30 4,0 C 4,4 C 1,7 C 84 % 1028,2 hPa 0,0 l/m 0 min 0 min 113 W/m 19,3 km/h (3 Bft) 97,87 %
20.01.2022 14:32 4,1 C 4,4 C 1,7 C 84 % 1028,2 hPa 0,0 l/m 0 min 0 min 98 W/m 12,9 km/h (3 Bft) 96,23 %
20.01.2022 14:34 4,1 C 3,9 C 1,7 C 84 % 1028,2 hPa 0,0 l/m 0 min 0 min 89 W/m 32,2 km/h (5 Bft) 97,87 %
20.01.2022 14:36 4,1 C 3,9 C 1,7 C 84 % 1028,2 hPa 0,0 l/m 0 min 0 min 84 W/m 25,7 km/h (4 Bft) 93,75 %
20.01.2022 14:38 4,1 C 3,9 C 1,7 C 84 % 1028,3 hPa 0,0 l/m 0 min 0 min 76 W/m 16,1 km/h (3 Bft) 97,96 %
20.01.2022 14:40 4,0 C 3,9 C 1,7 C 84 % 1028,3 hPa 0,0 l/m 0 min 0 min 71 W/m 32,2 km/h (5 Bft) 93,62 %
20.01.2022 14:42 3,9 C 3,9 C 1,1 C 84 % 1028,3 hPa 0,0 l/m 0 min 0 min 69 W/m 19,3 km/h (3 Bft) 97,92 %
20.01.2022 14:44 3,9 C 3,3 C 1,1 C 85 % 1028,3 hPa 0,0 l/m 0 min 0 min 76 W/m 22,5 km/h (4 Bft) 95,74 %
20.01.2022 14:46 3,8 C 3,3 C 1,1 C 85 % 1028,4 hPa 0,0 l/m 0 min 0 min 94 W/m 25,7 km/h (4 Bft) 100,00 %
20.01.2022 14:48 3,8 C 3,9 C 1,1 C 85 % 1028,4 hPa 0,0 l/m 0 min 0 min 84 W/m 22,5 km/h (4 Bft) 97,87 %
20.01.2022 14:50 3,8 C 4,4 C 1,1 C 86 % 1028,4 hPa 0,0 l/m 0 min 0 min 70 W/m 22,5 km/h (4 Bft) 95,74 %
20.01.2022 14:52 3,8 C 3,9 C 1,1 C 86 % 1028,4 hPa 0,0 l/m 0 min 0 min 49 W/m 16,1 km/h (3 Bft) 94,34 %
20.01.2022 14:54 3,8 C 5,6 C 1,1 C 86 % 1028,4 hPa 0,0 l/m 0 min 0 min 76 W/m 16,1 km/h (3 Bft) 95,83 %
20.01.2022 14:56 3,8 C 5,0 C 1,1 C 86 % 1028,4 hPa 0,0 l/m 0 min 0 min 115 W/m 19,3 km/h (3 Bft) 93,75 %
20.01.2022 14:58 3,8 C 5,0 C 1,1 C 86 % 1028,4 hPa 0,0 l/m 0 min 0 min 105 W/m 19,3 km/h (3 Bft) 95,83 %
20.01.2022 15:00 3,8 C 4,4 C 1,1 C 86 % 1028,4 hPa 0,0 l/m 0 min 0 min 89 W/m 32,2 km/h (5 Bft) 93,88 %
20.01.2022 15:02 3,8 C 4,4 C 1,1 C 86 % 1028,3 hPa 0,0 l/m 0 min 0 min 72 W/m 9,7 km/h (2 Bft) 97,14 %
20.01.2022 15:04 3,8 C 3,9 C 1,1 C 86 % 1028,3 hPa 0,0 l/m 0 min 0 min 66 W/m 16,1 km/h (3 Bft) 93,62 %
20.01.2022 15:06 3,7 C 3,9 C 1,1 C 86 % 1028,2 hPa 0,0 l/m 0 min 0 min 57 W/m 19,3 km/h (3 Bft) 95,74 %
20.01.2022 15:08 3,7 C 3,9 C 1,1 C 86 % 1028,2 hPa 0,0 l/m 0 min 0 min 54 W/m 16,1 km/h (3 Bft) 95,65 %
20.01.2022 15:10 3,7 C 3,9 C 1,1 C 86 % 1028,3 hPa 0,0 l/m 0 min 0 min 46 W/m 16,1 km/h (3 Bft) 95,74 %
20.01.2022 15:12 3,7 C 3,9 C 1,1 C 86 % 1028,3 hPa 0,0 l/m 0 min 0 min 59 W/m 22,5 km/h (4 Bft) 97,87 %
20.01.2022 15:14 3,6 C 3,9 C 1,1 C 86 % 1028,4 hPa 0,0 l/m 0 min 0 min 88 W/m 22,5 km/h (4 Bft) 97,87 %
20.01.2022 15:16 3,6 C 4,4 C 1,1 C 86 % 1028,4 hPa 0,0 l/m 2 min 0 min 125 W/m 12,9 km/h (3 Bft) 97,87 %
20.01.2022 15:18 3,7 C 3,9 C 1,1 C 86 % 1028,5 hPa 0,0 l/m 2 min 0 min 114 W/m 41,8 km/h (6 Bft) 95,74 %
20.01.2022 15:20 3,7 C 3,9 C 1,1 C 85 % 1028,5 hPa 0,0 l/m 0 min 0 min 83 W/m 41,8 km/h (6 Bft) 95,65 %
20.01.2022 15:22 3,7 C 3,9 C 1,1 C 85 % 1028,5 hPa 0,0 l/m 0 min 0 min 82 W/m 29,0 km/h (5 Bft) 97,87 %
20.01.2022 15:24 3,7 C 3,9 C 1,1 C 85 % 1028,5 hPa 0,0 l/m 0 min 0 min 83 W/m 16,1 km/h (3 Bft) 100,00 %
20.01.2022 15:26 3,8 C 3,9 C 1,1 C 84 % 1028,6 hPa 0,0 l/m 0 min 0 min 75 W/m 29,0 km/h (5 Bft) 100,00 %
20.01.2022 15:28 3,8 C 3,9 C 1,1 C 84 % 1028,6 hPa 0,0 l/m 0 min 0 min 60 W/m 19,3 km/h (3 Bft) 100,00 %
20.01.2022 15:30 3,8 C 3,9 C 1,1 C 84 % 1028,7 hPa 0,0 l/m 0 min 0 min 54 W/m 29,0 km/h (5 Bft) 100,00 %
20.01.2022 15:32 3,8 C 3,9 C 1,1 C 84 % 1028,7 hPa 0,0 l/m 0 min 0 min 53 W/m 25,7 km/h (4 Bft) 100,00 %
20.01.2022 15:34 3,8 C 3,9 C 1,1 C 84 % 1028,8 hPa 0,0 l/m 0 min 0 min 59 W/m 22,5 km/h (4 Bft) 100,00 %
20.01.2022 15:36 3,9 C 3,9 C 1,1 C 83 % 1028,8 hPa 0,0 l/m 0 min 0 min 62 W/m 19,3 km/h (3 Bft) 100,00 %
20.01.2022 15:38 3,9 C 3,9 C 1,1 C 83 % 1028,8 hPa 0,0 l/m 0 min 0 min 68 W/m 12,9 km/h (3 Bft) 100,00 %
20.01.2022 15:40 3,9 C 3,9 C 1,1 C 83 % 1028,9 hPa 0,0 l/m 0 min 0 min 74 W/m 29,0 km/h (5 Bft) 100,00 %
20.01.2022 15:42 3,9 C 3,9 C 1,1 C 83 % 1028,9 hPa 0,0 l/m 0 min 0 min 72 W/m 32,2 km/h (5 Bft) 95,83 %
20.01.2022 15:44 4,0 C 3,9 C 1,1 C 83 % 1029,0 hPa 0,0 l/m 0 min 0 min 62 W/m 25,7 km/h (4 Bft) 100,00 %
20.01.2022 15:46 4,0 C 3,9 C 1,1 C 83 % 1028,9 hPa 0,0 l/m 0 min 0 min 58 W/m 25,7 km/h (4 Bft) 100,00 %
20.01.2022 15:48 4,0 C 3,9 C 1,1 C 83 % 1028,8 hPa 0,0 l/m 0 min 0 min 56 W/m 16,1 km/h (3 Bft) 100,00 %
20.01.2022 15:50 4,1 C 3,9 C 1,1 C 83 % 1028,8 hPa 0,0 l/m 0 min 0 min 46 W/m 22,5 km/h (4 Bft) 100,00 %
20.01.2022 15:52 4,1 C 3,9 C 1,1 C 83 % 1028,7 hPa 0,0 l/m 0 min 0 min 29 W/m 32,2 km/h (5 Bft) 100,00 %
20.01.2022 15:54 4,0 C 3,9 C 1,1 C 82 % 1028,7 hPa 0,0 l/m 0 min 0 min 25 W/m 25,7 km/h (4 Bft) 100,00 %
20.01.2022 15:56 4,0 C 3,9 C 1,1 C 82 % 1028,6 hPa 0,0 l/m 0 min 0 min 27 W/m 22,5 km/h (4 Bft) 100,00 %
20.01.2022 15:58 4,0 C 3,9 C 1,1 C 82 % 1028,6 hPa 0,0 l/m 0 min 0 min 28 W/m 22,5 km/h (4 Bft) 95,74 %
20.01.2022 16:00 4,0 C 3,3 C 1,1 C 82 % 1028,7 hPa 0,0 l/m 0 min 0 min 32 W/m 16,1 km/h (3 Bft) 97,83 %
20.01.2022 16:02 3,9 C 3,3 C 1,1 C 82 % 1028,8 hPa 0,0 l/m 0 min 0 min 27 W/m 22,5 km/h (4 Bft) 100,00 %
20.01.2022 16:04 3,9 C 3,3 C 1,1 C 82 % 1028,8 hPa 0,0 l/m 0 min 0 min 23 W/m 16,1 km/h (3 Bft) 100,00 %
20.01.2022 16:06 3,9 C 3,3 C 1,1 C 82 % 1028,7 hPa 0,0 l/m 0 min 0 min 21 W/m 9,7 km/h (2 Bft) 100,00 %
20.01.2022 16:08 3,9 C 3,3 C 1,1 C 83 % 1028,7 hPa 0,0 l/m 0 min 0 min 21 W/m 9,7 km/h (2 Bft) 97,87 %
20.01.2022 16:10 3,9 C 3,3 C 0,6 C 83 % 1028,7 hPa 0,0 l/m 0 min 0 min 23 W/m 6,4 km/h (2 Bft) 100,00 %
20.01.2022 16:12 3,8 C 3,3 C 0,6 C 83 % 1028,7 hPa 0,0 l/m 0 min 0 min 26 W/m 6,4 km/h (2 Bft) 100,00 %
20.01.2022 16:14 3,8 C 3,3 C 0,6 C 83 % 1028,8 hPa 0,0 l/m 0 min 0 min 33 W/m 12,9 km/h (3 Bft) 100,00 %
20.01.2022 16:16 3,8 C 3,3 C 0,6 C 83 % 1028,7 hPa 0,0 l/m 0 min 0 min 32 W/m 12,9 km/h (3 Bft) 97,92 %
20.01.2022 16:18 3,8 C 3,3 C 0,6 C 84 % 1028,7 hPa 0,0 l/m 0 min 0 min 26 W/m 12,9 km/h (3 Bft) 100,00 %
20.01.2022 16:20 3,7 C 3,3 C 0,6 C 84 % 1028,7 hPa 0,0 l/m 0 min 0 min 27 W/m 12,9 km/h (3 Bft) 100,00 %
20.01.2022 16:22 3,7 C 3,3 C 0,6 C 84 % 1028,8 hPa 0,0 l/m 0 min 0 min 28 W/m 16,1 km/h (3 Bft) 77,08 %
20.01.2022 16:24 3,7 C 3,3 C 0,6 C 85 % 1028,8 hPa 0,0 l/m 0 min 0 min 25 W/m 16,1 km/h (3 Bft) 79,07 %
20.01.2022 16:26 3,6 C 3,3 C 0,6 C 85 % 1028,8 hPa 0,0 l/m 0 min 0 min 20 W/m 12,9 km/h (3 Bft) 97,87 %
20.01.2022 16:28 3,6 C 2,8 C 0,6 C 85 % 1028,8 hPa 0,0 l/m 0 min 0 min 17 W/m 12,9 km/h (3 Bft) 95,83 %
20.01.2022 16:30 3,6 C 2,8 C 0,6 C 85 % 1028,8 hPa 0,0 l/m 0 min 0 min 16 W/m 12,9 km/h (3 Bft) 97,92 %
20.01.2022 16:32 3,6 C 2,8 C 0,6 C 85 % 1028,8 hPa 0,0 l/m 0 min 0 min 15 W/m 19,3 km/h (3 Bft) 97,87 %
20.01.2022 16:34 3,5 C 2,8 C 0,6 C 86 % 1028,9 hPa 0,0 l/m 0 min 0 min 12 W/m 16,1 km/h (3 Bft) 97,14 %
20.01.2022 16:36 3,5 C 2,8 C 0,6 C 86 % 1028,9 hPa 0,0 l/m 0 min 0 min 11 W/m 16,1 km/h (3 Bft) 97,87 %
20.01.2022 16:38 3,4 C 2,8 C 0,6 C 86 % 1028,9 hPa 0,0 l/m 0 min 0 min 9 W/m 16,1 km/h (3 Bft) 97,87 %
20.01.2022 16:40 3,4 C 2,8 C 0,6 C 86 % 1029,0 hPa 0,0 l/m 0 min 0 min 7 W/m 16,1 km/h (3 Bft) 97,87 %
20.01.2022 16:42 3,4 C 2,8 C 0,6 C 86 % 1029,0 hPa 0,0 l/m 0 min 0 min 7 W/m 16,1 km/h (3 Bft) 95,65 %
20.01.2022 16:44 3,4 C 2,8 C 0,6 C 86 % 1029,0 hPa 0,0 l/m 0 min 0 min 7 W/m 19,3 km/h (3 Bft) 98,18 %
20.01.2022 16:46 3,4 C 2,8 C 0,6 C 86 % 1029,1 hPa 0,0 l/m 0 min 0 min 4 W/m 16,1 km/h (3 Bft) 93,75 %
20.01.2022 16:48 3,4 C 2,8 C 0,6 C 86 % 1029,1 hPa 0,0 l/m 0 min 2 min 0 W/m 19,3 km/h (3 Bft) 93,88 %
20.01.2022 16:50 3,4 C 2,8 C 0,6 C 86 % 1029,2 hPa 0,0 l/m 0 min 2 min 0 W/m 35,4 km/h (5 Bft) 95,74 %
20.01.2022 16:52 3,3 C 2,8 C 0,0 C 87 % 1029,2 hPa 0,0 l/m 0 min 2 min 0 W/m 25,7 km/h (4 Bft) 95,74 %
20.01.2022 16:54 3,2 C 2,2 C 0,0 C 87 % 1029,2 hPa 0,0 l/m 0 min 2 min 2 W/m 25,7 km/h (4 Bft) 95,74 %
20.01.2022 16:56 3,1 C 2,2 C 0,0 C 87 % 1029,2 hPa 0,0 l/m 0 min 2 min 5 W/m 25,7 km/h (4 Bft) 94,29 %
20.01.2022 16:58 2,9 C 2,2 C -0,6 C 88 % 1029,2 hPa 0,0 l/m 0 min 0 min 1 W/m 19,3 km/h (3 Bft) 93,62 %
20.01.2022 17:00 2,8 C 1,7 C -0,6 C 89 % 1029,2 hPa 0,0 l/m 0 min 0 min 0 W/m 22,5 km/h (4 Bft) 95,74 %
20.01.2022 17:02 2,7 C 1,7 C -0,6 C 89 % 1029,2 hPa 0,0 l/m 0 min 0 min 0 W/m 25,7 km/h (4 Bft) 94,34 %
20.01.2022 17:04 2,6 C 1,7 C -0,6 C 90 % 1029,2 hPa 0,0 l/m 0 min 0 min 0 W/m 22,5 km/h (4 Bft) 93,62 %
20.01.2022 17:06 2,6 C 1,7 C -0,6 C 90 % 1029,2 hPa 0,0 l/m 0 min 0 min 0 W/m 16,1 km/h (3 Bft) 91,67 %
20.01.2022 17:08 2,5 C 1,7 C -0,6 C 91 % 1029,2 hPa 0,0 l/m 0 min 0 min 0 W/m 16,1 km/h (3 Bft) 93,75 %
20.01.2022 17:10 2,4 C 1,7 C -0,6 C 91 % 1029,2 hPa 0,0 l/m 0 min 0 min 0 W/m 19,3 km/h (3 Bft) 89,13 %
20.01.2022 17:12 2,4 C 1,7 C -0,6 C 91 % 1029,3 hPa 0,0 l/m 0 min 0 min 0 W/m 19,3 km/h (3 Bft) 93,88 %
20.01.2022 17:14 2,3 C 1,7 C -0,6 C 91 % 1029,3 hPa 0,0 l/m 0 min 0 min 0 W/m 12,9 km/h (3 Bft) 93,62 %
20.01.2022 17:16 2,3 C 1,7 C -0,6 C 92 % 1029,4 hPa 0,0 l/m 0 min 0 min 0 W/m 12,9 km/h (3 Bft) 95,83 %
20.01.2022 17:18 2,3 C 1,7 C -0,6 C 92 % 1029,4 hPa 0,0 l/m 0 min 0 min 0 W/m 9,7 km/h (2 Bft) 93,62 %
20.01.2022 17:20 2,3 C 1,7 C -0,6 C 92 % 1029,4 hPa 0,0 l/m 0 min 0 min 0 W/m 12,9 km/h (3 Bft) 97,87 %
20.01.2022 17:22 2,2 C 1,7 C -0,6 C 92 % 1029,5 hPa 0,0 l/m 0 min 0 min 0 W/m 9,7 km/h (2 Bft) 93,62 %
20.01.2022 17:24 2,2 C 1,7 C -0,6 C 92 % 1029,5 hPa 0,0 l/m 0 min 0 min 0 W/m 6,4 km/h (2 Bft) 94,29 %
20.01.2022 17:26 2,2 C 1,7 C -0,6 C 92 % 1029,5 hPa 0,0 l/m 0 min 0 min 0 W/m 9,7 km/h (2 Bft) 97,87 %
20.01.2022 17:28 2,1 C 1,7 C -0,6 C 93 % 1029,5 hPa 0,0 l/m 0 min 0 min 0 W/m 12,9 km/h (3 Bft) 95,65 %
20.01.2022 17:30 2,1 C 1,7 C -0,6 C 93 % 1029,5 hPa 0,0 l/m 0 min 0 min 0 W/m 6,4 km/h (2 Bft) 98,15 %
20.01.2022 17:32 2,1 C 1,7 C -0,6 C 93 % 1029,6 hPa 0,0 l/m 0 min 0 min 0 W/m 16,1 km/h (3 Bft) 97,87 %
20.01.2022 17:34 2,1 C 1,7 C -0,6 C 93 % 1029,6 hPa 0,0 l/m 0 min 0 min 0 W/m 9,7 km/h (2 Bft) 93,75 %
20.01.2022 17:36 2,1 C 1,7 C -0,6 C 93 % 1029,7 hPa 0,0 l/m 0 min 0 min 0 W/m 9,7 km/h (2 Bft) 97,92 %
20.01.2022 17:38 2,1 C 1,7 C -0,6 C 93 % 1029,7 hPa 0,0 l/m 0 min 0 min 0 W/m 9,7 km/h (2 Bft) 97,87 %
20.01.2022 17:40 2,1 C 1,7 C -0,6 C 93 % 1029,7 hPa 0,0 l/m 0 min 0 min 0 W/m 12,9 km/h (3 Bft) 97,96 %
20.01.2022 17:42 2,1 C 1,7 C -0,6 C 93 % 1029,8 hPa 0,0 l/m 0 min 0 min 0 W/m 9,7 km/h (2 Bft) 95,74 %
20.01.2022 17:44 2,1 C 1,7 C -0,6 C 93 % 1029,7 hPa 0,0 l/m 0 min 0 min 0 W/m 12,9 km/h (3 Bft) 97,87 %
20.01.2022 17:46 2,2 C 1,7 C -0,6 C 94 % 1029,7 hPa 0,0 l/m 0 min 0 min 0 W/m 9,7 km/h (2 Bft) 97,87 %
20.01.2022 17:48 2,2 C 1,7 C -0,6 C 94 % 1029,7 hPa 0,0 l/m 0 min 0 min 0 W/m 9,7 km/h (2 Bft) 100,00 %
20.01.2022 17:50 2,2 C 1,7 C -0,6 C 94 % 1029,8 hPa 0,0 l/m 0 min 0 min 0 W/m 6,4 km/h (2 Bft) 100,00 %
20.01.2022 17:52 2,2 C 1,7 C -0,6 C 94 % 1029,8 hPa 0,0 l/m 0 min 0 min 0 W/m 9,7 km/h (2 Bft) 100,00 %
20.01.2022 17:54 2,1 C 1,1 C -0,6 C 94 % 1029,9 hPa 0,0 l/m 0 min 0 min 0 W/m 12,9 km/h (3 Bft) 100,00 %
20.01.2022 17:56 2,1 C 1,1 C -1,1 C 94 % 1029,9 hPa 0,0 l/m 0 min 0 min 0 W/m 9,7 km/h (2 Bft) 100,00 %
20.01.2022 17:58 2,1 C 1,1 C -1,1 C 94 % 1029,9 hPa 0,0 l/m 0 min 0 min 0 W/m 3,2 km/h (1 Bft) 97,87 %
20.01.2022 18:00 2,1 C 1,1 C -1,1 C 94 % 1030,0 hPa 0,0 l/m 0 min 0 min 0 W/m 6,4 km/h (2 Bft) 100,00 %
20.01.2022 18:02 2,0 C 1,1 C -1,1 C 94 % 1029,9 hPa 0,0 l/m 0 min 0 min 0 W/m 9,7 km/h (2 Bft) 98,11 %
20.01.2022 18:04 2,0 C 1,1 C -1,1 C 94 % 1030,0 hPa 0,0 l/m 0 min 0 min 0 W/m 9,7 km/h (2 Bft) 100,00 %
20.01.2022 18:08 1,9 C 1,1 C -1,1 C 94 % 1030,0 hPa 0,0 l/m 0 min 0 min 0 W/m 16,1 km/h (3 Bft) 100,00 %
20.01.2022 18:10 1,8 C 1,1 C -1,1 C 94 % 1030,0 hPa 0,0 l/m 0 min 0 min 0 W/m 12,9 km/h (3 Bft) 100,00 %
20.01.2022 18:12 1,8 C 1,1 C -1,1 C 94 % 1030,0 hPa 0,0 l/m 0 min 0 min 0 W/m 6,4 km/h (2 Bft) 100,00 %
20.01.2022 18:14 1,8 C 1,1 C -1,1 C 94 % 1029,9 hPa 0,0 l/m 0 min 0 min 0 W/m 9,7 km/h (2 Bft) 100,00 %
20.01.2022 18:16 1,8 C 1,1 C -1,1 C 94 % 1030,0 hPa 0,0 l/m 0 min 0 min 0 W/m 9,7 km/h (2 Bft) 100,00 %
20.01.2022 18:18 1,7 C 1,1 C -1,1 C 94 % 1030,0 hPa 0,0 l/m 0 min 0 min 0 W/m 6,4 km/h (2 Bft) 100,00 %
20.01.2022 18:20 1,7 C 1,1 C -1,1 C 94 % 1030,0 hPa 0,0 l/m 0 min 0 min 0 W/m 6,4 km/h (2 Bft) 97,87 %
20.01.2022 18:22 1,7 C 0,6 C -1,1 C 94 % 1030,0 hPa 0,0 l/m 0 min 0 min 0 W/m 3,2 km/h (1 Bft) 100,00 %
20.01.2022 18:24 1,7 C 0,6 C -1,1 C 94 % 1030,0 hPa 0,0 l/m 0 min 0 min 0 W/m 6,4 km/h (2 Bft) 100,00 %
20.01.2022 18:26 1,6 C 0,6 C -1,1 C 94 % 1030,0 hPa 0,0 l/m 0 min 0 min 0 W/m 6,4 km/h (2 Bft) 93,62 %
20.01.2022 18:28 1,6 C 0,6 C -1,1 C 94 % 1030,0 hPa 0,0 l/m 0 min 0 min 0 W/m 6,4 km/h (2 Bft) 100,00 %
20.01.2022 18:30 1,6 C 0,6 C -1,1 C 94 % 1030,0 hPa 0,0 l/m 0 min 0 min 0 W/m 6,4 km/h (2 Bft) 100,00 %
20.01.2022 18:32 1,6 C 0,6 C -1,1 C 94 % 1030,0 hPa 0,0 l/m 0 min 0 min 0 W/m 6,4 km/h (2 Bft) 95,83 %
20.01.2022 18:34 1,5 C 0,6 C -1,1 C 94 % 1030,1 hPa 0,0 l/m 0 min 0 min 0 W/m 6,4 km/h (2 Bft) 97,83 %
20.01.2022 18:36 1,5 C 0,6 C -1,1 C 94 % 1030,1 hPa 0,0 l/m 0 min 0 min 0 W/m 3,2 km/h (1 Bft) 95,74 %
20.01.2022 18:38 1,4 C 0,6 C -1,7 C 94 % 1030,1 hPa 0,0 l/m 0 min 0 min 0 W/m 6,4 km/h (2 Bft) 95,74 %
20.01.2022 18:40 1,4 C 0,6 C -1,7 C 94 % 1030,1 hPa 0,0 l/m 0 min 0 min 0 W/m 3,2 km/h (1 Bft) 97,87 %
20.01.2022 18:42 1,4 C 0,6 C -1,7 C 94 % 1030,0 hPa 0,0 l/m 0 min 0 min 0 W/m 6,4 km/h (2 Bft) 95,74 %
20.01.2022 18:44 1,4 C 0,6 C -1,7 C 94 % 1030,0 hPa 0,0 l/m 0 min 0 min 0 W/m 6,4 km/h (2 Bft) 97,87 %
20.01.2022 18:46 1,3 C 0,6 C -1,7 C 94 % 1030,0 hPa 0,0 l/m 0 min 0 min 0 W/m 6,4 km/h (2 Bft) 94,29 %
20.01.2022 18:48 1,3 C 0,6 C -1,7 C 94 % 1030,1 hPa 0,0 l/m 0 min 0 min 0 W/m 6,4 km/h (2 Bft) 97,83 %
20.01.2022 18:50 1,3 C 0,6 C -1,7 C 95 % 1030,1 hPa 0,0 l/m 0 min 0 min 0 W/m 6,4 km/h (2 Bft) 97,87 %
20.01.2022 18:52 1,3 C 0,6 C -1,7 C 95 % 1030,1 hPa 0,0 l/m 0 min 0 min 0 W/m 6,4 km/h (2 Bft) 97,87 %
20.01.2022 18:54 1,3 C 0,6 C -1,7 C 95 % 1030,1 hPa 0,0 l/m 0 min 0 min 0 W/m 6,4 km/h (2 Bft) 97,87 %
20.01.2022 18:56 1,2 C 0,6 C -1,7 C 95 % 1030,0 hPa 0,0 l/m 0 min 0 min 0 W/m 9,7 km/h (2 Bft) 95,74 %
20.01.2022 18:58 1,2 C 0,6 C -1,7 C 94 % 1030,1 hPa 0,0 l/m 0 min 0 min 0 W/m 6,4 km/h (2 Bft) 97,87 %
20.01.2022 19:00 1,2 C 0,6 C -1,7 C 94 % 1030,2 hPa 0,0 l/m 0 min 0 min 0 W/m 16,1 km/h (3 Bft) 100,00 %
20.01.2022 19:02 1,2 C 0,6 C -1,7 C 94 % 1030,2 hPa 0,0 l/m 0 min 0 min 0 W/m 12,9 km/h (3 Bft) 100,00 %
20.01.2022 19:04 1,1 C 0,6 C -1,7 C 95 % 1030,2 hPa 0,0 l/m 0 min 0 min 0 W/m 9,7 km/h (2 Bft) 100,00 %
20.01.2022 19:06 1,1 C 0,6 C -1,7 C 95 % 1030,3 hPa 0,0 l/m 0 min 0 min 0 W/m 9,7 km/h (2 Bft) 95,74 %
20.01.2022 19:08 1,1 C 0,6 C -1,7 C 95 % 1030,3 hPa 0,0 l/m 0 min 0 min 0 W/m 6,4 km/h (2 Bft) 100,00 %
20.01.2022 19:10 1,1 C 0,6 C -1,7 C 95 % 1030,3 hPa 0,0 l/m 0 min 0 min 0 W/m 12,9 km/h (3 Bft) 100,00 %
20.01.2022 19:12 1,1 C 0,6 C -1,7 C 95 % 1030,2 hPa 0,0 l/m 0 min 0 min 0 W/m 12,9 km/h (3 Bft) 100,00 %
20.01.2022 19:14 1,1 C 0,6 C -1,7 C 95 % 1030,2 hPa 0,0 l/m 0 min 0 min 0 W/m 9,7 km/h (2 Bft) 100,00 %
20.01.2022 19:16 1,1 C 0,6 C -1,7 C 95 % 1030,2 hPa 0,0 l/m 0 min 0 min 0 W/m 6,4 km/h (2 Bft) 95,65 %
20.01.2022 19:18 1,1 C 0,6 C -1,7 C 95 % 1030,3 hPa 0,0 l/m 0 min 0 min 0 W/m 9,7 km/h (2 Bft) 100,00 %
20.01.2022 19:20 1,1 C 0,6 C -1,7 C 95 % 1030,3 hPa 0,0 l/m 0 min 0 min 0 W/m 12,9 km/h (3 Bft) 97,87 %
20.01.2022 19:22 1,1 C 0,6 C -1,7 C 95 % 1030,3 hPa 0,0 l/m 0 min 0 min 0 W/m 6,4 km/h (2 Bft) 100,00 %
20.01.2022 19:24 1,1 C 0,0 C -1,7 C 95 % 1030,3 hPa 0,0 l/m 0 min 0 min 0 W/m 6,4 km/h (2 Bft) 97,87 %
20.01.2022 19:26 1,0 C 0,0 C -1,7 C 95 % 1030,3 hPa 0,0 l/m 0 min 0 min 0 W/m 6,4 km/h (2 Bft) 100,00 %
20.01.2022 19:28 1,0 C 0,6 C -1,7 C 95 % 1030,3 hPa 0,0 l/m 0 min 0 min 0 W/m 16,1 km/h (3 Bft) 100,00 %
20.01.2022 19:30 1,0 C 0,0 C -1,7 C 95 % 1030,4 hPa 0,0 l/m 0 min 0 min 0 W/m 6,4 km/h (2 Bft) 97,87 %
20.01.2022 19:32 1,0 C 0,0 C -1,7 C 95 % 1030,4 hPa 0,0 l/m 0 min 0 min 0 W/m 9,7 km/h (2 Bft) 95,92 %
20.01.2022 19:34 1,0 C 0,6 C -1,7 C 95 % 1030,5 hPa 0,0 l/m 0 min 0 min 0 W/m 9,7 km/h (2 Bft) 97,87 %
20.01.2022 19:36 0,9 C 0,0 C -1,7 C 95 % 1030,5 hPa 0,0 l/m 0 min 0 min 0 W/m 16,1 km/h (3 Bft) 97,87 %
20.01.2022 19:38 0,9 C 0,0 C -1,7 C 95 % 1030,6 hPa 0,0 l/m 0 min 0 min 0 W/m 9,7 km/h (2 Bft) 94,29 %
20.01.2022 19:40 0,9 C 0,0 C -1,7 C 95 % 1030,7 hPa 0,0 l/m 0 min 0 min 0 W/m 9,7 km/h (2 Bft) 54,35 %
20.01.2022 19:42 0,9 C 0,0 C -1,7 C 95 % 1030,7 hPa 0,0 l/m 0 min 0 min 0 W/m 6,4 km/h (2 Bft) 97,87 %
20.01.2022 19:44 0,9 C 0,0 C -1,7 C 95 % 1030,7 hPa 0,0 l/m 0 min 0 min 0 W/m 6,4 km/h (2 Bft) 97,87 %
20.01.2022 19:46 0,9 C 0,0 C -1,7 C 95 % 1030,7 hPa 0,0 l/m 0 min 0 min 0 W/m 9,7 km/h (2 Bft) 97,87 %
20.01.2022 19:48 0,9 C 0,0 C -1,7 C 95 % 1030,7 hPa 0,0 l/m 0 min 0 min 0 W/m 6,4 km/h (2 Bft) 96,23 %
20.01.2022 19:50 0,8 C 0,0 C -1,7 C 95 % 1030,8 hPa 0,0 l/m 0 min 0 min 0 W/m 3,2 km/h (1 Bft) 95,83 %
20.01.2022 19:52 0,8 C 0,0 C -1,7 C 95 % 1030,8 hPa 0,0 l/m 0 min 0 min 0 W/m 6,4 km/h (2 Bft) 95,65 %
20.01.2022 19:54 0,8 C 0,0 C -1,7 C 95 % 1030,9 hPa 0,0 l/m 0 min 0 min 0 W/m 6,4 km/h (2 Bft) 95,74 %
20.01.2022 19:56 0,8 C 0,0 C -1,7 C 95 % 1030,9 hPa 0,0 l/m 0 min 0 min 0 W/m 3,2 km/h (1 Bft) 93,62 %
20.01.2022 19:58 0,8 C 0,0 C -1,7 C 95 % 1030,9 hPa 0,0 l/m 0 min 0 min 0 W/m 6,4 km/h (2 Bft) 95,74 %
20.01.2022 20:00 0,8 C 0,0 C -1,7 C 95 % 1030,8 hPa 0,0 l/m 0 min 0 min 0 W/m 6,4 km/h (2 Bft) 95,74 %
20.01.2022 20:02 0,8 C 0,0 C -1,7 C 95 % 1030,8 hPa 0,0 l/m 0 min 0 min 0 W/m 6,4 km/h (2 Bft) 95,92 %
20.01.2022 20:04 0,7 C 0,0 C -1,7 C 95 % 1030,8 hPa 0,0 l/m 0 min 0 min 0 W/m 6,4 km/h (2 Bft) 95,74 %
20.01.2022 20:06 0,7 C 0,0 C -1,7 C 95 % 1030,9 hPa 0,0 l/m 0 min 0 min 0 W/m 6,4 km/h (2 Bft) 95,83 %
20.01.2022 20:08 0,7 C 0,0 C -1,7 C 95 % 1030,9 hPa 0,0 l/m 0 min 0 min 0 W/m 6,4 km/h (2 Bft) 93,62 %
20.01.2022 20:10 0,7 C 0,0 C -1,7 C 95 % 1031,0 hPa 0,0 l/m 0 min 0 min 0 W/m 12,9 km/h (3 Bft) 95,74 %
20.01.2022 20:12 0,7 C 0,0 C -1,7 C 95 % 1031,0 hPa 0,0 l/m 0 min 0 min 0 W/m 6,4 km/h (2 Bft) 91,49 %
20.01.2022 20:14 0,6 C 0,0 C -1,7 C 95 % 1030,9 hPa 0,0 l/m 0 min 0 min 0 W/m 9,7 km/h (2 Bft) 97,14 %
20.01.2022 20:16 0,6 C 0,0 C -1,7 C 95 % 1030,9 hPa 0,0 l/m 0 min 0 min 0 W/m 6,4 km/h (2 Bft) 93,62 %
20.01.2022 20:18 0,7 C 0,0 C -1,7 C 95 % 1030,9 hPa 0,0 l/m 0 min 0 min 0 W/m 12,9 km/h (3 Bft) 95,74 %
20.01.2022 20:20 0,6 C 0,0 C -1,7 C 95 % 1031,0 hPa 0,0 l/m 0 min 0 min 0 W/m 9,7 km/h (2 Bft) 95,74 %
20.01.2022 20:22 0,7 C 0,0 C -1,7 C 95 % 1031,1 hPa 0,0 l/m 0 min 0 min 0 W/m 6,4 km/h (2 Bft) 93,48 %
20.01.2022 20:24 0,7 C 0,0 C -1,7 C 96 % 1031,0 hPa 0,0 l/m 0 min 0 min 0 W/m 6,4 km/h (2 Bft) 95,74 %
20.01.2022 20:26 0,7 C 0,0 C -1,7 C 96 % 1030,9 hPa 0,0 l/m 0 min 0 min 0 W/m 6,4 km/h (2 Bft) 95,74 %
20.01.2022 20:28 0,7 C 0,0 C -1,7 C 96 % 1030,9 hPa 0,0 l/m 0 min 0 min 0 W/m 19,3 km/h (3 Bft) 95,74 %
20.01.2022 20:30 0,7 C 0,0 C -1,7 C 96 % 1030,9 hPa 0,0 l/m 0 min 0 min 0 W/m 6,4 km/h (2 Bft) 95,74 %
20.01.2022 20:32 0,7 C 0,0 C -1,7 C 96 % 1031,0 hPa 0,0 l/m 0 min 0 min 0 W/m 9,7 km/h (2 Bft) 91,49 %
20.01.2022 20:34 0,7 C 0,0 C -1,7 C 96 % 1031,0 hPa 0,0 l/m 0 min 0 min 0 W/m 12,9 km/h (3 Bft) 94,34 %
20.01.2022 20:36 0,7 C 0,0 C -1,7 C 96 % 1031,1 hPa 0,0 l/m 0 min 0 min 0 W/m 9,7 km/h (2 Bft) 95,92 %
20.01.2022 20:38 0,8 C 0,0 C -1,7 C 96 % 1031,1 hPa 0,0 l/m 0 min 0 min 0 W/m 9,7 km/h (2 Bft) 95,74 %
20.01.2022 20:40 0,7 C 0,0 C -1,7 C 96 % 1031,1 hPa 0,0 l/m 0 min 0 min 0 W/m 9,7 km/h (2 Bft) 95,65 %
20.01.2022 20:42 0,7 C 0,0 C -1,7 C 96 % 1031,1 hPa 0,0 l/m 0 min 0 min 0 W/m 6,4 km/h (2 Bft) 95,83 %
20.01.2022 20:44 0,7 C 0,0 C -1,7 C 96 % 1031,1 hPa 0,0 l/m 0 min 0 min 0 W/m 9,7 km/h (2 Bft) 97,87 %
20.01.2022 20:46 0,6 C 0,0 C -1,7 C 96 % 1031,1 hPa 0,0 l/m 0 min 0 min 0 W/m 3,2 km/h (1 Bft) 97,87 %
20.01.2022 20:48 0,6 C 0,0 C -1,7 C 96 % 1031,1 hPa 0,0 l/m 0 min 0 min 0 W/m 6,4 km/h (2 Bft) 95,83 %
20.01.2022 20:50 0,6 C 0,0 C -1,7 C 96 % 1031,1 hPa 0,0 l/m 0 min 0 min 0 W/m 9,7 km/h (2 Bft) 95,65 %
20.01.2022 20:52 0,6 C 0,0 C -1,7 C 96 % 1031,1 hPa 0,0 l/m 0 min 0 min 0 W/m 6,4 km/h (2 Bft) 97,87 %
20.01.2022 20:54 0,6 C 0,0 C -1,7 C 96 % 1031,2 hPa 0,0 l/m 0 min 0 min 0 W/m 6,4 km/h (2 Bft) 100,00 %
20.01.2022 20:56 0,6 C 0,0 C -1,7 C 96 % 1031,1 hPa 0,0 l/m 0 min 0 min 0 W/m 6,4 km/h (2 Bft) 100,00 %
20.01.2022 20:58 0,6 C 0,0 C -1,7 C 96 % 1031,2 hPa 0,0 l/m 0 min 0 min 0 W/m 9,7 km/h (2 Bft) 100,00 %
20.01.2022 21:00 0,6 C 0,0 C -1,7 C 96 % 1031,2 hPa 0,0 l/m 0 min 0 min 0 W/m 16,1 km/h (3 Bft) 97,92 %
20.01.2022 21:02 0,6 C 0,0 C -1,7 C 96 % 1031,1 hPa 0,0 l/m 0 min 0 min 0 W/m 12,9 km/h (3 Bft) 100,00 %
20.01.2022 21:04 0,6 C 0,0 C -1,7 C 96 % 1031,1 hPa 0,0 l/m 0 min 0 min 0 W/m 6,4 km/h (2 Bft) 100,00 %
20.01.2022 21:06 0,6 C 0,0 C -1,7 C 96 % 1031,1 hPa 0,0 l/m 0 min 0 min 0 W/m 9,7 km/h (2 Bft) 100,00 %
20.01.2022 21:08 0,6 C 0,0 C -1,7 C 96 % 1031,2 hPa 0,0 l/m 0 min 0 min 0 W/m 6,4 km/h (2 Bft) 97,92 %
20.01.2022 21:10 0,6 C 0,0 C -1,7 C 96 % 1031,3 hPa 0,0 l/m 0 min 0 min 0 W/m 6,4 km/h (2 Bft) 100,00 %
20.01.2022 21:12 0,6 C 0,0 C -1,7 C 96 % 1031,3 hPa 0,0 l/m 0 min 0 min 0 W/m 9,7 km/h (2 Bft) 100,00 %
20.01.2022 21:14 0,6 C 0,0 C -1,7 C 96 % 1031,3 hPa 0,0 l/m 0 min 0 min 0 W/m 9,7 km/h (2 Bft) 100,00 %
20.01.2022 21:16 0,6 C 0,0 C -1,7 C 96 % 1031,2 hPa 0,0 l/m 0 min 0 min 0 W/m 6,4 km/h (2 Bft) 97,87 %
20.01.2022 21:18 0,5 C 0,0 C -1,7 C 96 % 1031,2 hPa 0,0 l/m 0 min 0 min 0 W/m 9,7 km/h (2 Bft) 97,83 %
20.01.2022 21:20 0,5 C 0,0 C -1,7 C 96 % 1031,2 hPa 0,0 l/m 0 min 0 min 0 W/m 6,4 km/h (2 Bft) 95,74 %
20.01.2022 21:22 0,5 C 0,0 C -1,7 C 96 % 1031,2 hPa 0,0 l/m 0 min 0 min 0 W/m 9,7 km/h (2 Bft) 100,00 %
20.01.2022 21:24 0,5 C 0,0 C -1,7 C 96 % 1031,3 hPa 0,0 l/m 0 min 0 min 0 W/m 9,7 km/h (2 Bft) 100,00 %
20.01.2022 21:26 0,5 C 0,0 C -1,7 C 96 % 1031,4 hPa 0,0 l/m 0 min 0 min 0 W/m 3,2 km/h (1 Bft) 100,00 %
20.01.2022 21:28 0,4 C 0,0 C -2,2 C 96 % 1031,5 hPa 0,0 l/m 0 min 0 min 0 W/m 6,4 km/h (2 Bft) 100,00 %
20.01.2022 21:30 0,4 C -0,6 C -2,2 C 96 % 1031,5 hPa 0,0 l/m 0 min 0 min 0 W/m 3,2 km/h (1 Bft) 100,00 %
20.01.2022 21:32 0,4 C -0,6 C -2,2 C 96 % 1031,5 hPa 0,0 l/m 0 min 0 min 0 W/m 6,4 km/h (2 Bft) 100,00 %
20.01.2022 21:34 0,4 C -0,6 C -2,2 C 96 % 1031,5 hPa 0,0 l/m 0 min 0 min 0 W/m 9,7 km/h (2 Bft) 98,15 %
20.01.2022 21:36 0,4 C -0,6 C -2,2 C 95 % 1031,4 hPa 0,0 l/m 0 min 0 min 0 W/m 6,4 km/h (2 Bft) 97,87 %
20.01.2022 21:38 0,4 C -0,6 C -2,2 C 95 % 1031,5 hPa 0,0 l/m 0 min 0 min 0 W/m 0,0 km/h (0 Bft) 97,87 %
20.01.2022 21:40 0,4 C -0,6 C -2,2 C 95 % 1031,5 hPa 0,0 l/m 0 min 0 min 0 W/m 12,9 km/h (3 Bft) 100,00 %
20.01.2022 21:42 0,4 C -0,6 C -2,2 C 95 % 1031,5 hPa 0,0 l/m 0 min 0 min 0 W/m 6,4 km/h (2 Bft) 89,36 %
20.01.2022 21:44 0,4 C -0,6 C -2,2 C 95 % 1031,5 hPa 0,0 l/m 0 min 0 min 0 W/m 6,4 km/h (2 Bft) 100,00 %
20.01.2022 21:46 0,4 C -0,6 C -2,2 C 95 % 1031,5 hPa 0,0 l/m 0 min 0 min 0 W/m 6,4 km/h (2 Bft) 95,83 %
20.01.2022 21:48 0,3 C -0,6 C -2,2 C 95 % 1031,5 hPa 0,0 l/m 0 min 0 min 0 W/m 6,4 km/h (2 Bft) 95,83 %
20.01.2022 21:50 0,4 C -0,6 C -2,2 C 95 % 1031,6 hPa 0,0 l/m 0 min 0 min 0 W/m 9,7 km/h (2 Bft) 97,87 %
20.01.2022 21:52 0,4 C -0,6 C -2,2 C 95 % 1031,7 hPa 0,0 l/m 0 min 0 min 0 W/m 6,4 km/h (2 Bft) 95,83 %
20.01.2022 21:54 0,3 C -0,6 C -2,2 C 95 % 1031,7 hPa 0,0 l/m 0 min 0 min 0 W/m 9,7 km/h (2 Bft) 97,92 %
20.01.2022 21:56 0,3 C -0,6 C -2,2 C 96 % 1031,7 hPa 0,0 l/m 0 min 0 min 0 W/m 9,7 km/h (2 Bft) 95,83 %
20.01.2022 21:58 0,3 C -0,6 C -2,2 C 96 % 1031,7 hPa 0,0 l/m 0 min 0 min 0 W/m 9,7 km/h (2 Bft) 95,74 %
20.01.2022 22:00 0,3 C -0,6 C -2,2 C 96 % 1031,7 hPa 0,0 l/m 0 min 0 min 0 W/m 9,7 km/h (2 Bft) 93,48 %
20.01.2022 22:02 0,3 C -0,6 C -2,2 C 96 % 1031,7 hPa 0,0 l/m 0 min 0 min 0 W/m 6,4 km/h (2 Bft) 95,35 %
20.01.2022 22:04 0,3 C -0,6 C -2,2 C 96 % 1031,8 hPa 0,0 l/m 0 min 0 min 0 W/m 12,9 km/h (3 Bft) 93,88 %
20.01.2022 22:06 0,3 C -0,6 C -2,2 C 96 % 1031,9 hPa 0,0 l/m 0 min 0 min 0 W/m 6,4 km/h (2 Bft) 95,74 %
20.01.2022 22:08 0,3 C -0,6 C -2,2 C 96 % 1031,9 hPa 0,0 l/m 0 min 0 min 0 W/m 9,7 km/h (2 Bft) 95,74 %
20.01.2022 22:10 0,3 C -0,6 C -2,2 C 96 % 1031,8 hPa 0,0 l/m 0 min 0 min 0 W/m 16,1 km/h (3 Bft) 95,74 %
20.01.2022 22:12 0,3 C -0,6 C -2,2 C 96 % 1031,8 hPa 0,0 l/m 0 min 0 min 0 W/m 12,9 km/h (3 Bft) 93,02 %
20.01.2022 22:14 0,3 C 0,0 C -1,7 C 96 % 1031,9 hPa 0,0 l/m 0 min 0 min 0 W/m 12,9 km/h (3 Bft) 95,74 %
20.01.2022 22:16 0,4 C 0,0 C -1,7 C 96 % 1032,0 hPa 0,0 l/m 0 min 0 min 0 W/m 12,9 km/h (3 Bft) 95,83 %
20.01.2022 22:18 0,4 C -0,6 C -2,2 C 96 % 1032,0 hPa 0,0 l/m 0 min 0 min 0 W/m 12,9 km/h (3 Bft) 95,74 %
20.01.2022 22:20 0,4 C -0,6 C -2,2 C 96 % 1032,0 hPa 0,0 l/m 0 min 0 min 0 W/m 12,9 km/h (3 Bft) 95,74 %
20.01.2022 22:22 0,4 C -0,6 C -1,7 C 96 % 1031,9 hPa 0,0 l/m 0 min 0 min 0 W/m 9,7 km/h (2 Bft) 93,88 %
20.01.2022 22:24 0,4 C 0,0 C -1,7 C 96 % 1031,9 hPa 0,0 l/m 0 min 0 min 0 W/m 9,7 km/h (2 Bft) 97,87 %
20.01.2022 22:26 0,4 C 0,0 C -1,7 C 96 % 1031,9 hPa 0,0 l/m 0 min 0 min 0 W/m 16,1 km/h (3 Bft) 100,00 %
20.01.2022 22:28 0,4 C 0,0 C -1,7 C 96 % 1031,9 hPa 0,0 l/m 0 min 0 min 0 W/m 12,9 km/h (3 Bft) 100,00 %
20.01.2022 22:30 0,4 C 0,0 C -1,7 C 96 % 1032,0 hPa 0,0 l/m 0 min 0 min 0 W/m 16,1 km/h (3 Bft) 100,00 %
20.01.2022 22:32 0,4 C 0,0 C -1,7 C 96 % 1032,1 hPa 0,0 l/m 0 min 0 min 0 W/m 19,3 km/h (3 Bft) 100,00 %
20.01.2022 22:34 0,4 C 0,0 C -1,7 C 96 % 1032,1 hPa 0,0 l/m 0 min 0 min 0 W/m 9,7 km/h (2 Bft) 100,00 %
20.01.2022 22:36 0,4 C 0,0 C -1,7 C 96 % 1032,1 hPa 0,0 l/m 0 min 0 min 0 W/m 12,9 km/h (3 Bft) 100,00 %
20.01.2022 22:38 0,4 C 0,0 C -1,7 C 96 % 1032,1 hPa 0,0 l/m 0 min 0 min 0 W/m 16,1 km/h (3 Bft) 100,00 %
20.01.2022 22:40 0,4 C 0,0 C -1,7 C 96 % 1032,1 hPa 0,0 l/m 0 min 0 min 0 W/m 12,9 km/h (3 Bft) 100,00 %
20.01.2022 22:42 0,4 C 0,0 C -1,7 C 96 % 1032,1 hPa 0,0 l/m 0 min 0 min 0 W/m 12,9 km/h (3 Bft) 100,00 %
20.01.2022 22:44 0,4 C 0,0 C -1,7 C 96 % 1032,1 hPa 0,0 l/m 0 min 0 min 0 W/m 9,7 km/h (2 Bft) 100,00 %
20.01.2022 22:46 0,4 C 0,0 C -1,7 C 96 % 1032,1 hPa 0,0 l/m 0 min 0 min 0 W/m 9,7 km/h (2 Bft) 97,92 %
20.01.2022 22:48 0,4 C 0,0 C -1,7 C 96 % 1032,2 hPa 0,0 l/m 0 min 0 min 0 W/m 9,7 km/h (2 Bft) 97,87 %
20.01.2022 22:50 0,4 C 0,0 C -1,7 C 96 % 1032,2 hPa 0,0 l/m 0 min 0 min 0 W/m 12,9 km/h (3 Bft) 100,00 %
20.01.2022 22:52 0,4 C 0,0 C -1,7 C 96 % 1032,2 hPa 0,0 l/m 0 min 0 min 0 W/m 12,9 km/h (3 Bft) 100,00 %
20.01.2022 22:54 0,4 C 0,0 C -1,7 C 96 % 1032,2 hPa 0,0 l/m 0 min 0 min 0 W/m 9,7 km/h (2 Bft) 100,00 %
20.01.2022 22:56 0,4 C 0,0 C -1,7 C 96 % 1032,2 hPa 0,0 l/m 0 min 0 min 0 W/m 12,9 km/h (3 Bft) 100,00 %
20.01.2022 22:58 0,4 C 0,0 C -1,7 C 96 % 1032,2 hPa 0,0 l/m 0 min 0 min 0 W/m 6,4 km/h (2 Bft) 100,00 %
20.01.2022 23:00 0,4 C -0,6 C -1,7 C 96 % 1032,2 hPa 0,0 l/m 0 min 0 min 0 W/m 6,4 km/h (2 Bft) 100,00 %
20.01.2022 23:02 0,4 C -0,6 C -1,7 C 96 % 1032,2 hPa 0,0 l/m 0 min 0 min 0 W/m 9,7 km/h (2 Bft) 97,96 %
20.01.2022 23:04 0,4 C -0,6 C -1,7 C 96 % 1032,1 hPa 0,0 l/m 0 min 0 min 0 W/m 9,7 km/h (2 Bft) 100,00 %
20.01.2022 23:06 0,3 C -0,6 C -1,7 C 96 % 1032,1 hPa 0,0 l/m 0 min 0 min 0 W/m 9,7 km/h (2 Bft) 100,00 %
20.01.2022 23:08 0,3 C -0,6 C -1,7 C 96 % 1032,1 hPa 0,0 l/m 0 min 0 min 0 W/m 12,9 km/h (3 Bft) 100,00 %
20.01.2022 23:10 0,3 C -0,6 C -1,7 C 96 % 1032,3 hPa 0,0 l/m 0 min 0 min 0 W/m 6,4 km/h (2 Bft) 100,00 %
20.01.2022 23:12 0,3 C -0,6 C -2,2 C 96 % 1032,3 hPa 0,0 l/m 0 min 0 min 0 W/m 3,2 km/h (1 Bft) 97,30 %
20.01.2022 23:14 0,3 C -0,6 C -2,2 C 96 % 1032,3 hPa 0,0 l/m 0 min 0 min 0 W/m 6,4 km/h (2 Bft) 100,00 %
20.01.2022 23:16 0,3 C -0,6 C -2,2 C 96 % 1032,2 hPa 0,0 l/m 0 min 0 min 0 W/m 6,4 km/h (2 Bft) 97,87 %
20.01.2022 23:18 0,3 C -0,6 C -2,2 C 96 % 1032,2 hPa 0,0 l/m 0 min 0 min 0 W/m 9,7 km/h (2 Bft) 97,87 %
20.01.2022 23:20 0,2 C -0,6 C -2,2 C 96 % 1032,2 hPa 0,0 l/m 0 min 0 min 0 W/m 3,2 km/h (1 Bft) 97,87 %
20.01.2022 23:22 0,2 C -0,6 C -2,2 C 96 % 1032,2 hPa 0,0 l/m 0 min 0 min 0 W/m 6,4 km/h (2 Bft) 97,87 %
20.01.2022 23:24 0,2 C -0,6 C -2,2 C 96 % 1032,2 hPa 0,0 l/m 0 min 0 min 0 W/m 6,4 km/h (2 Bft) 97,87 %
20.01.2022 23:26 0,2 C -0,6 C -2,2 C 96 % 1032,2 hPa 0,0 l/m 0 min 0 min 0 W/m 6,4 km/h (2 Bft) 95,65 %
20.01.2022 23:28 0,2 C -0,6 C -2,2 C 96 % 1032,2 hPa 0,0 l/m 0 min 0 min 0 W/m 6,4 km/h (2 Bft) 97,87 %
20.01.2022 23:30 0,2 C -0,6 C -2,2 C 96 % 1032,3 hPa 0,0 l/m 0 min 0 min 0 W/m 3,2 km/h (1 Bft) 97,87 %
20.01.2022 23:32 0,2 C -0,6 C -2,2 C 96 % 1032,3 hPa 0,0 l/m 0 min 0 min 0 W/m 3,2 km/h (1 Bft) 97,87 %
20.01.2022 23:34 0,2 C -0,6 C -2,2 C 96 % 1032,3 hPa 0,0 l/m 0 min 0 min 0 W/m 6,4 km/h (2 Bft) 95,74 %
20.01.2022 23:36 0,1 C -0,6 C -2,2 C 96 % 1032,4 hPa 0,0 l/m 0 min 0 min 0 W/m 9,7 km/h (2 Bft) 96,23 %
20.01.2022 23:38 0,1 C -0,6 C -2,2 C 96 % 1032,4 hPa 0,0 l/m 0 min 0 min 0 W/m 3,2 km/h (1 Bft) 95,83 %
20.01.2022 23:40 0,1 C -0,6 C -2,2 C 96 % 1032,4 hPa 0,0 l/m 0 min 0 min 0 W/m 3,2 km/h (1 Bft) 95,74 %
20.01.2022 23:42 0,1 C -0,6 C -2,2 C 96 % 1032,4 hPa 0,0 l/m 0 min 0 min 0 W/m 3,2 km/h (1 Bft) 95,83 %
20.01.2022 23:44 0,1 C -0,6 C -2,2 C 96 % 1032,4 hPa 0,0 l/m 0 min 0 min 0 W/m 3,2 km/h (1 Bft) 95,65 %
20.01.2022 23:46 0,1 C -0,6 C -2,2 C 96 % 1032,4 hPa 0,0 l/m 0 min 0 min 0 W/m 6,4 km/h (2 Bft) 95,83 %
20.01.2022 23:48 0,1 C -0,6 C -2,2 C 96 % 1032,5 hPa 0,0 l/m 0 min 0 min 0 W/m 6,4 km/h (2 Bft) 95,74 %
20.01.2022 23:50 0,1 C -0,6 C -2,2 C 96 % 1032,5 hPa 0,0 l/m 0 min 0 min 0 W/m 6,4 km/h (2 Bft) 93,62 %
20.01.2022 23:52 0,1 C -0,6 C -2,2 C 96 % 1032,5 hPa 0,0 l/m 0 min 0 min 0 W/m 9,7 km/h (2 Bft) 95,74 %
20.01.2022 23:54 0,1 C -0,6 C -2,2 C 96 % 1032,5 hPa 0,0 l/m 0 min 0 min 0 W/m 9,7 km/h (2 Bft) 94,59 %
20.01.2022 23:56 0,1 C -0,6 C -2,2 C 96 % 1032,5 hPa 0,0 l/m 0 min 0 min 0 W/m 12,9 km/h (3 Bft) 95,74 %
20.01.2022 23:58 0,1 C -0,6 C -2,2 C 96 % 1032,6 hPa 0,0 l/m 0 min 0 min 0 W/m 6,4 km/h (2 Bft) 96,00 %
_ Min-Zeit 23:36 21:30 21:28 14:06 00:00 - - - - 21:38 19:40
Minimum _ 0,1 C -0,6 C -2,2 C 79 % 1023,7 hPa - - - - 0,0 km/h (0 Bft) 54,35 %
_ Max-Zeit 13:58 13:28 00:00 00:00 23:58 05:10 09:04 06:08 13:30 15:18 00:10
Maximum _ 4,9 C 10,6 C 3,3 C 98 % 1032,6 hPa 0,2 l/m 2 min 4 min 412 W/m 41,8 km/h
N (6 Bft)
100,00 %
Durchschnitt _ 2,6 C 2,4 C 0,8 C 93 % 1027,8 hPa #0,4 l/m #1:38 h #1:22 h 94 W/m 13,4 km/h (3 Bft) 96,98 %
© 2022 W. Hausmann